     2.10           OBSERVATION DATA    G (GPS)             RINEX VERSION / TYPE
teqc 2006Apr13 CORS-ADM Account 20060627 01:04:05UTC        PGM / RUN BY / DATE
Solaris 5.9|UltraSparc IIi|cc -xarch=v9 SC5.5|=+-|*Sparc    COMMENT
teqc 2006Apr13 CORS/NGS/NOAA 20060627 01:04:02UTC           COMMENT
BIT 2 OF LLI FLAGS DATA COLLECTED UNDER A/S CONDITION       COMMENT
cnmr                                                        MARKER NAME
50512M001                                                   MARKER NUMBER
Peter Paul Camacho Commonwealth of the Northern Mariana Isl OBSERVER / AGENCY
0220233361 TRIMBLE 4700 7.29                                REC # / TYPE / VERS
0220238086 TRM33429.20+GP UNAV                              ANT # / TYPE
 -5087756.9960  3465027.2461  1664652.3620                  APPROX POSITION XYZ
        0.0000        0.0000        0.0000                  ANTENNA: DELTA H/E/N
     1     1                                                WAVELENGTH FACT L1/2
     7    C1    L1    L2    P1    P2    D1    D2            # / TYPES OF OBSERV
    30.0000                                                 INTERVAL
SNR is mapped to RINEX snr flag value [0-9]                 COMMENT
L1 & L2: min(max(int(snr_dBHz/6), 0), 9)                    COMMENT
Forced Modulo Decimation to 30 seconds                      COMMENT
  2006     6    27     0     0    0.0000000     GPS         TIME OF FIRST OBS
                                                            END OF HEADER
 06  6 27  0  0  0.0000000  0  8G 2G 4G27G29G26G24G10G 8
  20143685.3654  -26904393.15848 -20959572.08747                  20143680.1564
       790.0684
  21274675.4064  -22540697.99547 -17559636.65347                  21274673.0314
     -1236.9824
  23678442.2754   -7397457.66647  -5761771.59245                  23678440.1844
     -1862.7494
  21297287.5104  -15074346.12248 -11725287.93846                  21297284.2934
      1022.9834
  21958785.8334  -12331181.26048  -9940700.49246                  21958783.1014
      2135.6494
  23206394.8974   -9709045.42346  -8788741.85045                  23206393.8294
     -2203.1894
  22333836.5184  -12383766.14348 -10833935.08046                  22333833.5814
       960.1174
  21862574.2414  -19366036.39248 -15083085.97646                  21862572.1284
       136.2654
 06  6 27  0  0 30.0000000  0  8G 2G 4G27G29G26G24G10G 8
  20139223.9114  -26927838.58548 -20977841.25947                  20139218.8914
       772.3344
  21281776.0244  -22503383.14048 -17530560.15047                  21281773.6334
     -1251.1624
  23689107.5304   -7341409.88247  -5718098.00245                  23689105.8284
     -1874.2824
  21291486.7744  -15104829.03048 -11749040.85246                  21291484.1194
      1008.6434
  21946632.3884  -12395043.26748  -9990463.06046                  21946630.8654
      2121.2604
  23219002.4024   -9642796.31947  -8737119.23145                  23219001.3514
     -2213.8774
  22328349.0434  -12412604.14248 -10856406.24746                  22328345.7844
       961.8364
  21861844.2304  -19369877.58448 -15086079.10846                  21861840.9524
       119.1504
 06  6 27  0  1  0.0000000  0  8G 2G 4G27G29G26G24G10G 8
  20134863.7784  -26950751.10148 -20995695.16947                  20134858.7034
       754.8684
  21288958.9414  -22465638.21148 -17501148.52347                  21288956.8224
     -1265.3274
  23699838.8584   -7285015.16247  -5674154.08145                  23699837.4024
     -1885.6454
  21285768.0234  -15134881.09147 -11772458.03346                  21285765.5624
       994.5314
  21934563.3344  -12458468.44548 -10039885.28646                  21934561.1014
      2106.8314
  23231669.4054   -9576224.52946  -8685245.16045                  23231669.2714
     -2224.4874
  22322852.2844  -12441491.17947 -10878915.63046                  22322848.5704
       963.7994
  21861211.0504  -19373201.24148 -15088668.95046                  21861208.3584
       102.1974
 06  6 27  0  1 30.0000000  0  8G 2G 4G27G29G26G24G10G 8
  20130605.1404  -26973130.96148 -21013134.01747                  20130600.0744
       737.6174
  21296222.8814  -22427465.00948 -17471403.19047                  21296220.8444
     -1279.1314
  23710636.4934   -7228276.38147  -5629942.08145                  23710634.4994
     -1896.4944
  21280130.7974  -15164504.78947 -11795541.42746                  21280128.3904
       980.8894
  21922576.5334  -12521458.15448 -10088968.16746                  21922574.6694
      2092.8764
  23244398.7304   -9509332.78846  -8633121.77545                  23244398.3554
     -2234.6194
  22317344.9844  -12470428.82547 -10901464.45846                  22317342.3724
       965.8554
  21860677.1034  -19376008.26548 -15090856.25546                  21860674.4454
        85.5224
 06  6 27  0  2  0.0000000  0  8G 2G 4G27G29G26G24G10G 8
  20126447.5704  -26994980.31848 -21030159.50447                  20126442.1184
       719.5614
  21303567.7794  -22388867.85448 -17441327.50746                  21303565.7124
     -1293.5694
  23721497.1544   -7171198.64347  -5585465.94345                  23721495.9094
     -1908.1154
  21274574.6014  -15193704.82148 -11818294.70046                  21274572.4594
       966.3674
  21910672.7244  -12584015.68648 -10137714.29546                  21910670.0494
      2078.1494
  23257188.4564   -9442126.07247  -8580752.99245                  23257187.7294
     -2245.3474
  22311827.8454  -12499420.62747 -10924055.48346                  22311825.1294
       967.4374
  21860240.9694  -19378301.52648 -15092643.21046                  21860237.7234
        67.9154
 06  6 27  0  2 30.0000000  0  8G 2G 4G27G29G26G24G10G 8
  20122391.1074  -27016295.78048 -21046768.96347                  20122385.8604
       701.7334
  21310993.6914  -22349845.41548 -17410920.43346                  21310991.3054
     -1307.7694
  23732423.4864   -7113781.68547  -5540725.48645                  23732421.8384
     -1919.4384
  21269098.5024  -15222480.13547 -11840717.02146                  21269096.4414
       952.2564
  21898850.8534  -12646138.79248 -10186121.89846                  21898848.0724
      2063.5694
  23270037.0264   -9374603.77247  -8528138.27345                  23270036.4394
     -2255.8694
  22306301.1724  -12528464.69847 -10946687.23046                  22306298.0304
       969.0334
  21859902.2644  -19380078.38548 -15094027.78046                  21859899.5864
        50.6544
 06  6 27  0  3  0.0000000  0  8G 2G 4G27G29G26G24G10G 8
  20118435.6164  -27037081.26148 -21062965.45547                  20118430.8064
       683.9404
  21318499.5184  -22310403.33448 -17380186.37046                  21318496.3714
     -1321.7434
  23743413.3274   -7056032.50647  -5495726.16545                  23743411.8034
     -1930.5274
  21263702.3564  -15250836.85447 -11862813.15646                  21263699.9314
       938.2134
  21887110.5854  -12707832.26647 -10234194.72946                  21887108.1734
      2049.2094
  23282944.6614   -9306772.58946  -8475282.87845                  23282944.6774
     -2266.1724
  22300763.0214  -12557566.19547 -10969363.73546                  22300760.5234
       970.9374
  21859661.3804  -19381343.87547 -15095013.88946                  21859659.1464
        33.6524
 06  6 27  0  3 30.0000000  0  8G 2G 4G27G29G26G24G10G 8
  20114583.8044  -27057324.35948 -21078739.30847                  20114578.4644
       665.5374
  21326086.7524  -22270531.26748 -17349117.23346                  21326084.0414
     -1336.4404
  23754467.9854   -6997941.16947  -5450460.20345                  23754465.2594
     -1942.2614
  21258387.8944  -15278764.90248 -11884575.26846                  21258385.2704
       923.6474
  21875455.3204  -12769084.65247 -10281923.85246                  21875452.9294
      2034.2144
  23295913.6354   -9238622.49447  -8422178.99445                  23295912.4614
     -2277.1094
  22295216.6804  -12586713.63247 -10992076.03546                  22295214.2234
       972.1394
  21859520.1914  -19382086.15447 -15095592.30746                  21859517.5874
        15.8894
 06  6 27  0  4  0.0000000  0  8G 2G 4G27G29G26G24G10G 8
  20110832.7324  -27077035.96848 -21094099.02147                  20110827.4414
       648.2374
  21333753.3954  -22230241.87448 -17317722.91746                  21333750.6074
     -1349.8934
  23765584.4354   -6939522.16947  -5404938.92145                  23765582.5294
     -1952.6864
  21253152.6264  -15306277.59148 -11906013.72846                  21253150.2034
       910.2444
  21863880.4304  -12829908.11747 -10329318.75646                  21863877.5334
      2020.2784
  23308940.2254   -9170167.03547  -8368837.15145                  23308939.4654
     -2286.9194
  22289658.7144  -12615919.31247 -11014833.70846                  22289656.0344
       974.5514
  21859476.5444  -19382316.88347 -15095772.10346                  21859473.5524
         -.7864
 06  6 27  0  4 30.0000000  0  8G 2G 4G27G29G26G24G10G 8
  20107184.2024  -27096208.66948 -21109038.78647                  20107179.0164
       629.9464
  21341500.8174  -22189529.91948 -17285999.33347                  21341497.9874
     -1364.2334
  23776764.9164   -6880770.92447  -5359158.77945                  23776764.1374
     -1963.9604
  21247996.8924  -15333369.83748 -11927124.56046                  21247994.9514
       895.9524
  21852389.1064  -12890296.30847 -10376374.48146                  21852386.2054
      2005.4984
  23322026.4094   -9101401.49447  -8315253.68545                  23322025.1144
     -2297.4414
  22284091.1384  -12645176.96347 -11037631.89546                  22284088.8664
       975.9864
  21859531.7484  -19382029.81847 -15095548.42346                  21859528.6764
       -18.2234
 06  6 27  0  5  0.0000000  0  8G 2G 4G27G29G26G24G10G 8
  20103639.6874  -27114836.46948 -21123553.97247                  20103634.4124
       611.8364
  21349329.1494  -22148391.30748 -17253943.28547                  21349327.6304
     -1378.3304
  23788008.6874   -6821684.18446  -5313117.18945                  23788005.8874
     -1975.1324
  21242921.9064  -15360038.02048 -11947904.95846                  21242920.1224
       881.8754
  21840981.1274  -12950244.27947 -10423087.17946                  21840978.3054
      1990.9624
  23335170.9124   -9032322.84147  -8261426.20245                  23335170.7214
     -2307.7254
  22278514.6474  -12674481.79947 -11060466.83246                  22278512.1774
       977.6174
  21859685.5714  -19381219.61747 -15094917.10446                  21859682.8604
       -35.6744
 06  6 27  0  5 30.0000000  0  8G 2G 4G27G29G26G24G10G 8
  20100197.0804  -27132926.37948 -21137650.00547                  20100192.0654
       593.8234
  21357236.7884  -22106834.71448 -17221561.54246                  21357236.0804
     -1392.4374
  23799313.9164   -6762271.81846  -5266821.84545                  23799312.4484
     -1986.0744
  21237926.2164  -15386291.31347 -11968362.06646                  21237924.0974
       867.9154
  21829655.9014  -13009759.87147 -10469462.95546                  21829653.6184
      1976.4404
  23348373.9224   -8962940.38547  -8207362.03645                  23348373.8254
     -2318.0084
  22272927.9424  -12703841.72647 -11083344.69846                  22272925.2134
       979.3164
  21859937.6414  -19379894.42448 -15093884.50246                  21859934.4644
       -53.0084
 06  6 27  0  6  0.0000000  0  8G 2G 4G27G29G26G24G10G 8
  20096861.1664  -27150456.53048 -21151309.87147                  20096855.4404
       575.0684
  21365228.2144  -22064840.21948 -17188838.57246                  21365226.6864
     -1407.0314
  23810685.3304   -6702514.86446  -5220258.05345                  23810684.9684
     -1997.4854
  21233012.7064  -15412110.22648 -11988480.69546                  21233010.8154
       853.4474
  21818416.7054  -13068822.45147 -10515485.73246                  21818414.4384
      1961.2504
  23361638.8814   -8893235.31047  -8153046.49545                  23361638.8124
     -2328.8144
  22267333.8944  -12733236.07347 -11106249.39846                  22267331.7164
       980.3524
  21860292.4114  -19378032.46447 -15092433.63546                  21860290.1584
       -70.9814
 06  6 27  0  6 30.0000000  0  8G 2G 4G27G29G26G24G10G 8
  20093628.9454  -27167443.37548 -21164546.38747                  20093623.1564
       556.7724
  21373299.7244  -22022426.27448 -17155788.77646                  21373296.9194
     -1421.1914
  23822118.1894   -6642432.84746  -5173440.95045                  23822116.9334
     -2008.5744
  21228178.6824  -15437513.57348 -12008275.52246                  21228176.5144
       839.4044
  21807260.5394  -13127449.45847 -10561169.10846                  21807257.4564
      1946.5674
  23374961.0314   -8823226.28047  -8098494.08245                  23374960.6334
     -2339.0674
  22261731.0964  -12762682.49147 -11129194.67246                  22261728.2474
       982.0224
  21860745.3914  -19375651.32648 -15090578.20946                  21860742.3174
       -88.4574
 06  6 27  0  7  0.0000000  0  8G 2G 4G27G29G26G24G10G 8
  20090500.5894  -27183881.64548 -21177355.42847                  20090495.2474
       538.8534
  21381450.9754  -21979589.71048 -17122409.65446                  21381447.2264
     -1434.8494
  23833613.7744   -6582023.04146  -5126368.41144                  23833612.5424
     -2019.1554
  21223424.4014  -15462498.54548 -12027744.30746                  21223422.0054
       825.9964
  21796187.5024  -13185636.71847 -10606509.82146                  21796185.1304
      1932.3584
  23388342.1624   -8752910.44747  -8043702.60845                  23388340.9934
     -2348.8964
  22256118.5274  -12792176.37347 -11152176.91846                  22256115.7064
       984.0484
  21861297.8004  -19372746.64148 -15088314.82046                  21861295.1374
      -105.4594
 06  6 27  0  7 30.0000000  0  8G 2G 4G27G29G26G24G10G 8
  20087476.3104  -27199774.66348 -21189739.60747                  20087470.6004
       521.1134
  21389682.0234  -21936335.35648 -17088704.98246                  21389677.8264
     -1448.3454
  23845170.9574   -6521291.91147  -5079045.47744                  23845169.4594
     -2029.3604
  21218748.7664  -15487070.44548 -12046891.24246                  21218746.6624
       812.5594
  21785198.0474  -13243388.42047 -10651511.13546                  21785195.2514
      1918.3154
  23401779.9964   -8682294.01047  -7988676.88745                  23401779.0934
     -2358.4134
  22250495.5424  -12821721.91647 -11175199.41846                  22250493.7794
       986.1624
  21861948.6294  -19369322.29048 -15085646.50546                  21861946.6804
      -122.3244
 06  6 27  0  8  0.0000000  0  8G 2G 4G27G29G26G24G10G 8
  20084554.6104  -27215126.93648 -21201702.40747                  20084549.3254
       502.2804
  21397991.6914  -21892669.88147 -17054679.96446                  21397988.1324
     -1462.7984
  23856788.3084   -6460246.62247  -5031477.76544                  23856786.0554
     -2040.4444
  21214150.3804  -15511236.16748 -12065721.66146                  21214148.1964
       798.3594
  21774289.7384  -13300710.05047 -10696177.34446                  21774287.3404
      1903.0714
  23415273.2684   -8611383.96347  -7933422.36744                  23415272.4014
     -2369.0724
  22244862.7604  -12851324.67547 -11198266.50646                  22244859.9234
       987.2024
  21862698.7524  -19365383.78847 -15082577.56746                  21862696.1064
      -140.2394
 06  6 27  0  8 30.0000000  0  8G 2G 4G27G29G26G24G10G 8
  20081738.7564  -27229925.06148 -21213233.42047                  20081733.2244
       484.5904
  21406381.3154  -21848581.76948 -17020325.61246                  21406378.3584
     -1476.0644
  23868466.8474   -6398876.88947  -4983657.11645                  23868464.9184
     -2050.4254
  21209630.5144  -15534984.69548 -12084227.01446                  21209628.3224
       785.2494
  21763465.7764  -13357589.44748 -10740498.93546                  21763463.6594
      1889.1454
  23428825.1274   -8540169.44047  -7877930.62944                  23428824.0584
     -2378.3254
  22239220.9634  -12880972.31548 -11221368.55146                  22239218.1704
       989.5954
  21863548.2174  -19360918.52047 -15079098.15746                  21863545.4974
      -157.0364
 06  6 27  0  9  0.0000000  0  8G 2G 4G27G29G26G24G10G 8
  20079026.4434  -27244177.12548 -21224338.92647                  20079020.7564
       465.9524
  21414849.6834  -21804080.60848 -16985649.41546                  21414846.8554
     -1490.2644
  23880204.0094   -6337193.31147  -4935592.13844                  23880202.1054
     -2061.3384
  21205189.3444  -15558326.26348 -12102415.22846                  21205186.4414
       771.2944
  21752724.4904  -13414035.57947 -10784482.92246                  21752722.0834
      1874.3114
  23442433.3734   -8468661.29647  -7822210.06745                  23442432.7624
     -2388.5014
  22233568.8564  -12910673.64447 -11244512.43646                  22233566.1994
       990.9424
  21864497.7864  -19355935.57548 -15075215.35046                  21864494.1254
      -174.7024
 06  6 27  0  9 30.0000000  0  8G 2G 4G27G29G26G24G10G 8
  20076417.6854  -27257886.79748 -21235021.80447                  20076412.3224
       447.9494
  21423395.2964  -21759172.41748 -16950656.03947                  21423393.5474
     -1503.6674
  23892000.4484   -6275202.68046  -4887287.76444                  23891998.4944
     -2071.4504
  21200824.0844  -15581266.92847 -12120291.07246                  21200821.3844
       758.0184
  21742064.6524  -13470053.13347 -10828132.96046                  21742062.3484
      1860.1514
  23456095.2634   -8396865.52047  -7766265.42445                  23456095.0574
     -2397.9594
  22227906.2014  -12940433.11447 -11267701.64146                  22227903.3884
       992.9794
  21865543.7354  -19350439.31048 -15070932.54346                  21865540.0744
      -191.7774
 06  6 27  0 10  0.0000000  0  8G 2G 4G27G29G26G24G10G 8
  20073914.7414  -27271041.27448 -21245272.04347                  20073909.1074
       428.8874
  21432020.8844  -21713845.81648 -16915336.64147                  21432019.2344
     -1518.0764
  23903858.0884   -6212894.51546  -4838736.00744                  23903855.6054
     -2082.5054
  21196537.0314  -15603795.77547 -12137846.00846                  21196534.5254
       743.9504
  21731489.1824  -13525630.08348 -10871439.66946                  21731486.4384
      1844.9954
  23469814.1174   -8324771.82547  -7710088.63445                  23469814.0964
     -2408.2964
  22222233.6684  -12970238.62947 -11290926.71046                  22222231.5464
       994.0434
  21866688.5704  -19344417.50348 -15066240.20446                  21866686.2314
      -209.8684
 06  6 27  0 10 30.0000000  0  8G 2G 4G27G29G26G24G10G 8
  20071516.3294  -27283643.89748 -21255092.27147                  20071510.8264
       410.7134
  21440724.6304  -21668106.23348 -16879695.42147                  21440722.7064
     -1531.6854
  23915774.3064   -6150275.10447  -4789941.67444                  23915771.7294
     -2092.7004
  21192326.9694  -15625918.78148 -12155084.70146                  21192324.2204
       730.5034
  21720996.1984  -13580771.17248 -10914406.73646                  21720993.3064
      1830.6154
  23483588.7914   -8252386.28547  -7653684.40544                  23483588.7074
     -2417.8174
  22216552.8824  -13000094.49547 -11314191.02246                  22216550.1394
       995.8894
  21867933.4514  -19337874.46148 -15061141.75346                  21867931.3694
      -226.9434
 06  6 27  0 11  0.0000000  0  8G 2G 4G27G29G26G24G10G 8
  20069225.3424  -27295684.20948 -21264474.33747                  20069219.9924
       392.2904
  21449508.7914  -21621944.99448 -16843725.62847                  21449507.2794
     -1545.3814
  23927750.8944   -6087336.93647  -4740898.98844                  23927748.7474
     -2103.0034
  21188195.7454  -15647627.63947 -12172000.68446                  21188193.1694
       717.1094
  21710587.9594  -13635466.82847 -10957026.72046                  21710585.5924
      1816.0744
  23497420.6934   -8179700.85547  -7597046.49444                  23497419.9714
     -2427.5004
  22210863.4364  -13029990.77048 -11337486.81746                  22210861.8924
       997.5544
  21869280.5494  -19330800.44548 -15055629.51646                  21869277.4974
      -244.3414
 06  6 27  0 11 30.0000000  0  8G 2G 4G27G29G26G24G10G 8
  20067038.9904  -27307173.72148 -21273427.20447                  20067034.0574
       373.7744
  21458370.8194  -21575375.62448 -16807437.83847                  21458369.3334
     -1559.1554
  23939784.2414   -6024094.31647  -4691619.06944                  23939783.1484
     -2113.1544
  21184140.5924  -15668936.28448 -12188604.81146                  21184138.2034
       703.5894
  21700261.6394  -13689729.55648 -10999309.34946                  21700259.3824
      1801.5284
  23511306.7484   -8106729.65947  -7540185.89544                  23511305.4934
     -2437.1444
  22205164.3794  -13059939.78448 -11360823.72946                  22205162.4214
       999.1854
  21870724.2524  -19323208.21848 -15049713.48746                  21870722.5024
      -261.7974
 06  6 27  0 12  0.0000000  0  8G 2G 4G27G29G26G24G10G 8
  20064959.0184  -27318104.80248 -21281944.93547                  20064953.9154
       355.0494
  21467311.6654  -21528392.05348 -16770827.27847                  21467309.9964
     -1573.0524
  23951878.4074   -5960542.29747  -4642098.01844                  23951876.5374
     -2123.5304
  21180163.0004  -15689839.04948 -12204892.67446                  21180160.6514
       689.9764
  21690019.7824  -13743552.60348 -11041249.37546                  21690017.3374
      1786.8314
  23525248.6224   -8033467.26547  -7483098.40744                  23525247.6444
     -2446.9734
  22199456.9514  -13089934.59648 -11384196.33146                  22199454.4424
      1000.5714
  21872270.1114  -19315090.76248 -15043388.20146                  21872266.6714
      -279.3314
 06  6 27  0 12 30.0000000  0  8G 2G 4G27G29G26G24G10G 8
  20062984.3794  -27328479.71348 -21290029.29547                  20062978.8284
       336.4704
  21476330.2584  -21480998.56048 -16733897.31146                  21476327.8294
     -1586.6554
  23964030.1864   -5896685.39047  -4592339.44244                  23964028.1174
     -2133.6674
  21176261.2874  -15710340.47147 -12220867.78046                  21176259.5834
       676.6414
  21679860.3774  -13796939.11148 -11082849.23546                  21679858.3444
      1772.1834
  23539244.5794   -7959918.35447  -7425787.68744                  23539244.0154
     -2456.3964
  22193739.2644  -13119977.78048 -11407606.62146                  22193736.9194
      1002.1974
  21873913.4894  -19306451.00548 -15036655.91246                  21873910.9864
      -296.7824
 06  6 27  0 13  0.0000000  0  8G 2G 4G27G29G26G24G10G 8
  20061117.3264  -27338290.75848 -21297674.26947                  20061112.0144
       317.5834
  21485428.0474  -21433189.16848 -16696643.25746                  21485425.3694
     -1600.6154
  23976240.8894   -5832519.07347  -4542339.75144                  23976238.8054
     -2144.0584
  21172438.0384  -15730435.28348 -12236526.06646                  21172435.0594
       663.0134
  21669785.3274  -13849882.74548 -11124103.99046                  21669783.2994
      1757.3544
  23553295.1724   -7886077.86947  -7368249.74344                  23553295.3884
     -2466.2064
  22188014.5994  -13150062.55548 -11431049.31646                  22188012.0274
      1003.4374
  21875658.0854  -19297282.42548 -15029511.55546                  21875655.1024
      -314.4784
 06  6 27  0 13 30.0000000  0  8G 2G 4G27G29G26G24G10G 8
  20059357.1244  -27347541.36148 -21304882.51947                  20059352.5084
       299.1754
  21494603.6084  -21384969.23148 -16659069.30146                  21494601.5314
     -1614.0044
  23988508.9304   -5768049.21647  -4492103.53144                  23988507.2164
     -2153.7944
  21168690.3874  -15750128.77448 -12251871.62746                  21168687.8084
       649.9374
  21659793.9474  -13902387.48748 -11165016.75446                  21659792.1194
      1742.9794
  23567401.5234   -7811951.42947  -7310488.99744                  23567401.2584
     -2475.3864
  22182281.7424  -13180192.72548 -11454527.38446                  22182278.5224
      1005.2204
  21877503.0334  -19287588.70048 -15021958.00046                  21877499.9984
      -331.6704
 06  6 27  0 14  0.0000000  0  8G 2G 4G27G29G26G24G10G 8
  20057704.1504  -27356229.15148 -21311652.23647                  20057699.3634
       280.4444
  21503858.0244  -21336338.05148 -16621174.90246                  21503855.8314
     -1627.5934
  24000835.4954   -5703276.35547  -4441631.21144                  24000832.6114
     -2163.8094
  21165018.9814  -15769420.93148 -12266904.46746                  21165015.9694
       636.6554
  21649886.6064  -13954452.29348 -11205586.72646                  21649883.9034
      1728.4034
  23581561.9964   -7737539.23247  -7252505.56244                  23581561.6284
     -2484.7514
  22176539.2654  -13210366.38448 -11478039.33346                  22176536.9764
      1006.7194
  21879447.4454  -19277368.65348 -15013994.31946                  21879444.7524
      -349.1554
 06  6 27  0 14 30.0000000  0  8G 2G 4G27G29G26G24G10G 8
  20056156.1184  -27364362.23248 -21317989.70647                  20056150.9434
       261.5674
  21513188.7794  -21287305.58448 -16582967.81646                  21513186.4984
     -1641.3624
  24013216.3304   -5638211.10347  -4390931.01544                  24013214.4314
     -2174.0334
  21161422.3854  -15788322.21548 -12281632.73046                  21161419.4264
       623.2424
  21640060.7054  -14006085.99348 -11245820.77046                  21640058.8384
      1713.7014
  23595774.3324   -7662852.00247  -7194307.78644                  23595774.2914
     -2494.3654
  22170788.3424  -13240591.92848 -11501591.71446                  22170785.2124
      1007.9934
  21881490.8754  -19266631.02348 -15005627.32646                  21881488.0914
      -366.7724
 06  6 27  0 15  0.0000000  0  8G 2G 4G27G29G26G24G10G 8
  20054716.1534  -27371930.42948 -21323887.00147                  20054710.8694
       242.8224
  21522597.9184  -21237863.42248 -16544441.49046                  21522595.0824
     -1654.8974
  24025654.9694   -5572846.02147  -4339997.25044                  24025653.0684
     -2183.7604
  21157901.6634  -15806824.08148 -12296049.76146                  21157898.6944
       610.0054
  21630319.2434  -14057279.22548 -11285711.58846                  21630316.6584
      1699.0044
  23610040.6284   -7587881.60847  -7135889.41844                  23610040.7434
     -2503.7064
  22165028.5184  -13270859.69148 -11525176.98846                  22165025.4254
      1009.5614
  21883634.5554  -19255366.57148 -14996849.83546                  21883632.0874
      -384.3554
 06  6 27  0 15 30.0000000  0  8G 2G 4G27G29G26G24G10G 8
  20053382.2384  -27378939.09148 -21329348.30947                  20053376.8414
       224.3214
  21532082.7544  -21188018.49648 -16505601.31846                  21532080.3804
     -1668.1644
  24038149.5754   -5507188.69747  -4288835.72544                  24038147.5124
     -2193.3594
  21154455.1484  -15824934.47148 -12310161.75346                  21154453.1024
       597.2414
  21620660.1364  -14108038.48148 -11325264.22946                  21620657.7404
      1684.8144
  23624359.8504   -7512635.95347  -7077256.54444                  23624359.3544
     -2512.7294
  22159259.4264  -13301175.40048 -11548799.62346                  22159256.4274
      1011.3724
  21885877.1414  -19243581.37948 -14987666.55146                  21885874.6864
      -401.4994
 06  6 27  0 16  0.0000000  0  8G 2G 4G27G29G26G24G10G 8
  20052155.5574  -27385386.29948 -21334372.11347                  20052149.9294
       205.6304
  21541645.0734  -21137770.90948 -16466447.38046                  21541642.0084
     -1681.5924
  24050699.2564   -5441240.09147  -4237447.20545                  24050696.4634
     -2203.0474
  21151083.4524  -15842653.49148 -12323968.78146                  21151081.0374
       584.1064
  21611083.4214  -14158362.83648 -11364478.01046                  21611081.6954
      1670.2494
  23638730.5824   -7437115.66647  -7018409.66044                  23638730.5354
     -2521.8654
  22153481.6704  -13331537.51748 -11572458.43746                  22153478.9794
      1012.9204
  21888219.5064  -19231274.50448 -14978076.77946                  21888216.2694
      -418.8484
 06  6 27  0 16 30.0000000  0  8G 2G 4G27G29G26G24G10G 8
  20051035.8634  -27391270.18948 -21338956.96447                  20051031.4674
       186.9244
  21551282.6804  -21087120.36748 -16426979.46046                  21551280.2204
     -1694.7954
  24063303.5174   -5375000.95047  -4185832.32844                  24063301.2034
     -2212.5054
  21147786.0624  -15859981.49348 -12337471.12646                  21147783.9694
       571.3434
  21601590.0514  -14208251.17048 -11403352.00846                  21601588.2304
      1655.8894
  23653153.2904   -7361320.93447  -6959348.95744                  23653153.8844
     -2530.7964
  22147695.4904  -13361944.50848 -11596152.19746                  22147692.7264
      1014.5314
  21890660.7014  -19218444.59748 -14968079.44546                  21890658.1674
      -436.1624
 06  6 27  0 17  0.0000000  0  8G 2G 4G27G29G26G24G10G 8
  20050023.4534  -27396590.69748 -21343102.82447                  20050018.4554
       167.5444
  21560997.5194  -21036068.68748 -16387198.96046                  21560994.7914
     -1708.7604
  24075963.7454   -5308473.75647  -4133992.98444                  24075961.4664
     -2222.7104
  21144562.6864  -15876920.24048 -12350670.13246                  21144560.2844
       557.7054
  21592179.4674  -14257704.42848 -11441886.98546                  21592177.0604
      1640.8254
  23667628.9314   -7285254.11847  -6900076.21044                  23667629.2614
     -2540.4444
  22141900.2374  -13392396.63648 -11619881.13846                  22141897.5474
      1015.4254
  21893201.0644  -19205092.54548 -14957675.23746                  21893198.9054
      -454.0824
 06  6 27  0 17 30.0000000  0  8G 2G 4G27G29G26G24G10G 8
  20049120.4934  -27401336.01548 -21346800.47447                  20049115.3644
       148.6574
  21570790.6824  -20984605.92048 -16347098.12646                  21570788.7044
     -1722.2074
  24088680.1684   -5241649.43347  -4081922.13144                  24088677.6824
     -2232.3244
  21141415.3084  -15893460.74048 -12363558.80846                  21141413.1384
       544.8634
  21582853.9874  -14306711.98048 -11480074.67846                  21582851.9134
      1626.2164
  23682157.8854   -7208905.89247  -6840584.17244                  23682157.6454
     -2549.5264
  22136099.0844  -13422882.48948 -11643636.35546                  22136096.4504
      1016.8514
  21895843.4934  -19191207.66248 -14946855.85746                  21895840.9464
      -471.6464
 06  6 27  0 18  0.0000000  0  8G 2G 4G27G29G26G24G10G 8
  20048326.0414  -27405512.18348 -21350054.63747                  20048320.4164
       129.7664
  21580660.7424  -20932739.62448 -16306682.87446                  21580658.0374
     -1735.4394
  24101450.4464   -5174536.61947  -4029626.48144                  24101449.0794
     -2241.8804
  21138342.0424  -15909610.58248 -12376143.10546                  21138339.7884
       531.8214
  21573611.0694  -14355280.51548 -11517920.27246                  21573609.2724
      1611.7144
  23696738.6904   -7132284.36347  -6780879.18644                  23696738.1484
     -2558.5994
  22130290.1114  -13453407.97548 -11667422.43246                  22130287.2984
      1018.2184
  21898585.9594  -19176796.32848 -14935626.23846                  21898583.2704
      -489.0924
 06  6 27  0 18 30.0000000  0  8G 2G 4G27G29G26G24G10G 8
  20047638.1924  -27409125.85048 -21352870.48847                  20047633.0684
       111.0994
  21590605.8174  -20880478.10948 -16265959.64546                  21590603.2044
     -1748.6334
  24114275.3784   -5107144.08647  -3977112.83345                  24114273.8234
     -2251.0114
  21135341.1104  -15925378.52748 -12388429.79746                  21135338.9424
       519.2724
  21564451.5584  -14403417.68348 -11555429.74246                  21564449.2984
      1597.3984
  23711369.2394   -7055398.67347  -6720968.33744                  23711369.3534
     -2567.1534
  22124472.6344  -13483979.85448 -11691244.67946                  22124470.5164
      1019.8004
  21901427.1914  -19161866.13548 -14923992.32546                  21901424.6244
      -506.2454
 06  6 27  0 19  0.0000000  0  8G 2G 4G27G29G26G24G10G 8
  20047057.7134  -27412176.33248 -21355247.48547                  20047052.7404
        92.0514
  21600625.8284  -20827822.52848 -16224929.35946                  21600623.0784
     -1761.9874
  24127152.7524   -5039473.63547  -3924382.65444                  24127150.9264
     -2260.5714
  21132413.3494  -15940765.90847 -12400419.96646                  21132410.9754
       506.3334
  21555373.3054  -14451123.46848 -11592603.07246                  21555370.8984
      1582.7834
  23726050.5154   -6978250.24047  -6660852.78444                  23726050.3234
     -2576.2354
  22118645.7964  -13514597.54847 -11715102.61146                  22118643.4724
      1021.1384
  21904367.1054  -19146417.20848 -14911954.20046                  21904364.5174
      -523.8184
 06  6 27  0 19 30.0000000  0  8G 2G 4G27G29G26G24G10G 8
  20046585.4844  -27414656.23148 -21357179.87347                  20046580.4864
        73.0574
  21610722.1124  -20774767.34948 -16183587.69846                  21610718.6934
     -1775.3954
  24140083.7174   -4971520.41947  -3871432.12744                  24140081.4534
     -2269.9664
  21129558.2694  -15955767.68647 -12412109.66346                  21129556.0354
       493.5454
  21546378.2224  -14498391.55948 -11629435.32846                  21546375.8564
      1568.1934
  23740783.1784   -6900833.86747  -6600528.43744                  23740782.3914
     -2585.0344
  22112812.5124  -13545254.15747 -11738990.87846                  22112809.6364
      1022.4124
  21907406.5574  -19130443.22248 -14899506.94646                  21907403.9904
      -541.3384
 06  6 27  0 20  0.0000000  0  8G 2G 4G27G29G26G24G10G 8
  20046223.3924  -27416561.77348 -21358664.71847                  20046217.6024
        53.7404
  21620894.1284  -20721310.25148 -16141932.85146                  21620891.7764
     -1788.7844
  24153068.7414   -4903283.09847  -3818260.26544                  24153067.1734
     -2279.4484
  21126777.1414  -15970382.06048 -12423497.48346                  21126775.0644
       480.4394
  21537467.5854  -14545219.20148 -11665924.40446                  21537465.3024
      1553.3594
  23755564.3504   -6823148.21247  -6539994.25844                  23755565.1824
     -2594.2634
  22106971.9994  -13575945.72447 -11762906.38346                  22106969.3354
      1023.3984
  21910546.4274  -19113940.92048 -14886648.00946                  21910544.2814
      -559.0384
 06  6 27  0 20 30.0000000  0  8G 2G 4G27G29G26G24G10G 8
  20045967.3174  -27417906.31048 -21359712.41547                  20045962.0824
        35.1954
  21631140.6574  -20667466.35048 -16099976.60546                  21631138.0054
     -1801.5094
  24166104.3774   -4834777.81247  -3764879.55844                  24166103.5814
     -2288.2374
  21124067.3954  -15984624.40248 -12434595.40046                  21124065.0234
       468.3254
  21528637.5354  -14591620.65348 -11702081.37346                  21528635.8234
      1539.3114
  23770396.7714   -6745209.01447  -6479262.51144                  23770396.0644
     -2602.5594
  22101122.5244  -13606685.70047 -11786859.60546                  22101119.7394
      1025.1464
  21913784.5204  -19096924.75148 -14873388.65946                  21913782.7344
      -576.0214
 06  6 27  0 21  0.0000000  0  8G 2G 4G27G29G26G24G10G 8
  20045820.0064  -27418678.75248 -21360314.31447                  20045814.9584
        16.2014
  21641462.2004  -20613226.32548 -16057711.67946                  21641459.5314
     -1814.5854
  24179194.3084   -4765995.45047  -3711282.96344                  24179192.3534
     -2297.2664
  21121429.2974  -15998485.58047 -12445396.30646                  21121427.1384
       455.7134
  21519890.6784  -14637585.49348 -11737898.10146                  21519888.7334
      1524.9074
  23785278.3924   -6667006.91947  -6418325.92744                  23785278.4564
     -2611.0014
  22095265.7544  -13637462.52847 -11810841.52546                  22095263.5324
      1026.5434
  21917122.7504  -19079383.74248 -14859720.34346                  21917120.6214
      -593.3844
 06  6 27  0 21 30.0000000  0  8G 2G 4G27G29G26G24G10G 8
  20045781.1914  -27418885.32948 -21360475.27947                  20045775.3784
        -2.6714
  21651858.0794  -20558598.02948 -16015144.22146                  21651854.8124
     -1827.5294
  24192333.6764   -4696944.74547  -3657477.26245                  24192332.1584
     -2306.1724
  21118862.9544  -16011974.07448 -12455906.82446                  21118860.1264
       443.2864
  21511225.3234  -14683120.85148 -11773380.19146                  21511223.6904
      1510.6104
  23800208.7784   -6588550.61047  -6357191.25844                  23800208.4124
     -2619.5124
  22089400.4654  -13668282.74548 -11834857.30346                  22089398.1964
      1027.8564
  21920559.2274  -19061325.43648 -14845648.94246                  21920556.7984
      -610.7084
 06  6 27  0 22  0.0000000  0  8G 2G 4G27G29G26G24G10G 8
  20045851.0444  -27418516.90848 -21360188.19647                  20045845.7514
       -21.8364
  21662328.1394  -20503573.58248 -15972268.06046                  21662325.9974
     -1840.7524
  24205526.4654   -4627618.94847  -3603457.19044                  24205524.5104
     -2315.5274
  21116368.0804  -16025082.37447 -12466121.07346                  21116365.5354
       430.5914
  21502643.5414  -14728218.29648 -11808521.04646                  21502641.7764
      1495.9914
  23815188.3354   -6509833.06847  -6295853.02944                  23815187.7804
     -2628.2814
  22083529.3574  -13699136.91747 -11858899.50046                  22083526.8164
      1029.0194
  21924095.8244  -19042741.15648 -14831167.68446                  21924093.0684
      -628.1794
 06  6 27  0 22 30.0000000  0  8G 2G 4G27G29G26G24G10G 8
  20046029.4154  -27417579.81348 -21359457.99847                  20046023.6784
       -40.9184
  21672873.4814  -20448161.23048 -15929089.64946                  21672870.5874
     -1853.7454
  24218768.8574   -4558027.01447  -3549229.79944                  24218767.4814
     -2324.3414
  21113944.8064  -16037819.01847 -12476045.73046                  21113942.1744
       418.2034
  21494144.1214  -14772885.12448 -11843326.34646                  21494142.5234
      1481.4794
  23830215.4364   -6430862.75347  -6234317.83744                  23830215.4094
     -2636.7284
  22077650.3864  -13730031.36947 -11882973.10846                  22077647.4274
      1030.3564
  21927730.7474  -19023638.45048 -14816282.46546                  21927728.2634
      -645.5914
 06  6 27  0 23  0.0000000  0  8G 2G 4G27G29G26G24G10G 8
  20046315.0024  -27416076.77448 -21358286.80347                  20046309.7904
       -59.8054
  21683490.7934  -20392365.32148 -15885612.36246                  21683488.1084
     -1866.4994
  24232061.7704   -4488173.48247  -3494798.51344                  24232060.4914
     -2333.1014
  21111591.0764  -16050188.66048 -12485684.39346                  21111588.0184
       405.9034
  21485725.0384  -14817125.02748 -11877798.98846                  21485723.3064
      1467.3244
  23845290.2174   -6351644.63947  -6172589.53244                  23845289.8634
     -2645.0104
  22071763.7624  -13760968.60348 -11907080.04046                  22071760.5804
      1031.6754
  21931464.2384  -19004020.86648 -14800996.03646                  21931461.3474
      -662.7984
 06  6 27  0 23 30.0000000  0  8G 2G 4G27G29G26G24G10G 8
  20046709.3314  -27414005.33048 -21356672.69847                  20046704.0844
       -78.6184
  21694181.6874  -20336185.46648 -15841835.88746                  21694178.7174
     -1879.1414
  24245405.0674   -4418058.45747  -3440163.47144                  24245402.4864
     -2341.4704
  21109307.1804  -16062191.04547 -12495036.89246                  21109304.4304
       393.8774
  21477388.2254  -14860936.55248 -11911937.83246                  21477386.2104
      1453.1544
  23860412.2824   -6272178.54047  -6110668.00044                  23860411.5984
     -2653.1304
  22065868.6584  -13791946.26248 -11931218.47746                  22065865.7004
      1033.2424
  21935295.1404  -18983886.42148 -14785306.86446                  21935292.9024
      -679.7854
 06  6 27  0 24  0.0000000  0  8G 2G 4G27G29G26G24G10G 8
  20047212.9374  -27411360.34048 -21354611.67247                  20047207.5974
       -97.8224
  21704946.3444  -20279617.50448 -15797756.99646                  21704944.0954
     -1892.1924
  24258796.8164   -4347679.26246  -3385322.62144                  24258795.5064
     -2350.4004
  21107093.7374  -16073822.76648 -12504100.56046                  21107090.6104
       381.4114
  21469133.5534  -14904314.97948 -11945739.19646                  21469131.4104
      1438.6474
  23875581.8894   -6192461.15347  -6048550.66044                  23875580.7714
     -2661.5874
  22059967.3184  -13822958.74648 -11955384.04146                  22059964.3504
      1034.2244
  21939225.9834  -18963231.02747 -14769211.77146                  21939223.1774
      -697.2954
 06  6 27  0 24 30.0000000  0  8G 2G 4G27G29G26G24G10G 8
  20047823.3704  -27408151.88448 -21352111.57847                  20047818.1214
      -116.3874
  21715782.2334  -20222673.37748 -15753384.98446                  21715779.3444
     -1904.4194
  24272238.2514   -4277048.27447  -3330285.53844                  24272236.2964
     -2358.4574
  21104948.1814  -16085095.80647 -12512884.72446                  21104945.3484
       369.8194
  21460959.5364  -14947271.40548 -11979211.72946                  21460956.7734
      1424.8144
  23890797.1324   -6112504.73046  -5986247.07144                  23890796.7074
     -2669.2284
  22054057.5744  -13854015.58148 -11979584.17146                  22054054.0784
      1035.9774
  21943253.4474  -18942065.41548 -14752719.08446                  21943250.8524
      -714.0484
 06  6 27  0 25  0.0000000  0  8G 2G 4G27G29G26G24G10G 8
  20048542.3194  -27404374.98048 -21349168.54747                  20048536.4974
      -135.3524
  21726690.9224  -20165349.41848 -15708717.00746                  21726688.1424
     -1917.0804
  24285726.7234   -4206162.56146  -3275049.91344                  24285724.7284
     -2367.0124
  21102871.6744  -16096007.21547 -12521387.10846                  21102868.2164
       357.6764
  21452865.9404  -14989801.58247 -12012352.10546                  21452863.9284
      1410.5184
  23906058.6574   -6032306.28246  -5923754.90244                  23906058.9384
     -2677.3054
  22048140.4034  -13885111.51047 -12003814.74646                  22048137.4314
      1037.1684
  21947379.0354  -18920385.33148 -14735825.51346                  21947376.3124
      -731.2214
 06  6 27  0 25 30.0000000  0  8G 2G 4G27G29G26G24G10G 8
  20049370.9214  -27400019.80248 -21345774.90447                  20049365.3604
      -155.0494
  21737672.5914  -20107637.57248 -15663746.76846                  21737670.6814
     -1930.4884
  24299266.5114   -4135014.29047  -3219609.77144                  24299264.3024
     -2376.2604
  21100865.7604  -16106549.00047 -12529601.47246                  21100862.9344
       345.0344
  21444855.6164  -15031896.51247 -12045153.34646                  21444852.9424
      1395.5714
  23921367.6194   -5951857.91546  -5861067.96144                  23921367.2944
     -2686.1524
  22042217.1934  -13916236.29847 -12028067.82846                  22042214.4304
      1037.6664
  21951604.3244  -18898181.80848 -14718524.08246                  21951602.1974
      -749.1754
 06  6 27  0 26  0.0000000  0  8G 2G 4G27G29G26G24G10G 8
  20050309.0294  -27395088.56248 -21341932.39647                  20050304.1004
      -174.0434
  21748728.4864  -20049541.69148 -15618477.29446                  21748725.8124
     -1942.9544
  24312853.8984   -4063608.67746  -3163969.04144                  24312852.4614
     -2384.4634
  21098929.0314  -16116725.42447 -12537531.15346                  21098926.3034
       333.0714
  21436927.5734  -15073559.44448 -12077617.96246                  21436925.1594
      1381.5674
  23936723.1474   -5871164.24846  -5798189.91444                  23936722.9054
     -2693.8334
  22036287.9024  -13947392.23248 -12052345.17346                  22036286.0934
      1038.9654
  21955928.8704  -18875457.98948 -14700817.20746                  21955926.1094
      -766.2404
 06  6 27  0 26 30.0000000  0  8G 2G 4G27G29G26G24G10G 8
  20051355.6134  -27389588.97148 -21337647.00247                  20051350.4144
      -192.9794
  21759854.8894  -19991070.97048 -15572915.72046                  21759852.4984
     -1955.4444
  24326489.3174   -3991955.13347  -3108135.18544                  24326487.3564
     -2392.7984
  21097060.4184  -16126546.01147 -12545183.56146                  21097056.9124
       321.1914
  21429079.8714  -15114798.62348 -12109752.38646                  21429077.6244
      1367.4714
  23952123.1424   -5790234.83046  -5735128.15744                  23952123.7114
     -2701.8554
  22030352.0684  -13978585.98048 -12076651.99946                  22030349.3064
      1040.2494
  21960350.3314  -18852221.92048 -14682711.19946                  21960347.6604
      -783.2424
 06  6 27  0 27  0.0000000  0  8G 2G 4G27G29G26G24G10G 8
  20052510.7214  -27383520.96348 -21332918.69647                  20052504.8254
      -211.8554
  21771052.1984  -19932226.75848 -15527063.11746                  21771049.9254
     -1967.7734
  24340170.9894   -3920055.26647  -3052109.34844                  24340169.4114
     -2400.8694
  21095258.5524  -16136012.43447 -12552559.98246                  21095256.2294
       309.4684
  21421312.5974  -15155614.65848 -12141557.08346                  21421310.8294
      1353.3844
  23967569.6234   -5709071.75147  -5671884.32444                  23967568.6504
     -2709.4784
  22024408.1904  -14009817.26847 -12100988.07046                  22024406.0334
      1041.6114
  21964869.4854  -18828474.46648 -14664206.68746                  21964866.4204
      -800.2344
 06  6 27  0 27 30.0000000  0  8G 2G 4G27G29G26G24G10G 8
  20053774.4454  -27376877.07948 -21327741.65447                  20053769.6314
      -230.7034
  21782321.9674  -19873003.39048 -15480915.08146                  21782319.7864
     -1980.0494
  24353901.5634   -3847904.25947  -2995887.84344                  24353899.6464
     -2408.8724
  21093526.1564  -16145119.42847 -12559656.35446                  21093523.6354
       297.8914
  21413627.4444  -15196001.17447 -12173027.09446                  21413625.0664
      1339.4044
  23983058.4594   -5627669.59846  -5608454.21844                  23983059.6744
     -2717.0704
  22018460.1914  -14041078.26247 -12125347.28446                  22018457.2704
      1042.9304
  21969486.5524  -18804208.99048 -14645298.53146                  21969484.4964
      -817.1584
 06  6 27  0 28  0.0000000  0  8G 2G 4G27G29G26G24G10G 8
  20055147.6734  -27369661.78248 -21322119.36047                  20055142.6764
      -249.9414
  21793663.2434  -19813406.69848 -15434476.13546                  21793660.4644
     -1992.6904
  24367677.7164   -3775508.86147  -2939475.88044                  24367675.4334
     -2417.3294
  21091860.0434  -16153872.91147 -12566477.26246                  21091857.1794
       285.8984
  21406023.4564  -15235963.22747 -12204166.35146                  21406020.7764
      1325.1034
  23998593.3564   -5546034.52546  -5544842.64744                  23998594.8224
     -2724.9904
  22012505.5404  -14072372.54347 -12149732.45546                  22012502.6904
      1043.7454
  21974201.9194  -18779430.47148 -14625990.61446                  21974199.4324
      -834.4584
 06  6 27  0 28 30.0000000  0  8G 2G 4G27G29G26G24G10G 8
  20056628.4444  -27361882.76448 -21316057.79947                  20056623.2284
      -268.7654
  21805073.6294  -19753445.72148 -15387753.34146                  21805071.3594
     -2004.7754
  24381498.7184   -3702878.78647  -2882881.12543                  24381497.0934
     -2424.8784
  21090259.8024  -16162282.53547 -12573030.21246                  21090257.5324
       274.5464
  21398497.8044  -15275509.27047 -12234981.43046                  21398495.8134
      1311.2164
  24014171.0754   -5464176.31646  -5481057.19944                  24014171.0294
     -2732.3194
  22006543.4624  -14103707.14848 -12174149.00446                  22006539.6714
      1045.1124
  21979012.8554  -18754147.67848 -14606289.73246                  21979010.6904
      -851.2014
 06  6 27  0 29  0.0000000  0  8G 2G 4G27G29G26G24G10G 8
  20058216.9014  -27353532.36848 -21309551.01347                  20058212.4084
      -288.0184
  21816554.4974  -19693114.62948 -15340742.13346                  21816551.9484
     -2017.3004
  24395365.6564   -3630008.45347  -2826098.99343                  24395363.0064
     -2433.1494
  21088726.2864  -16170342.39847 -12579310.64046                  21088723.5654
       262.8124
  21391052.8564  -15314632.36647 -12265466.95846                  21391050.7364
      1296.9974
  24029792.4654   -5382089.08146  -5417093.25944                  24029791.9734
     -2740.2104
  22000573.2664  -14135073.97348 -12198590.66346                  22000570.5104
      1045.9724
  21983921.8834  -18728353.58748 -14586190.45446                  21983919.0214
      -868.3984
 06  6 27  0 29 30.0000000  0  8G 2G 4G27G29G26G24G10G 8
  20059916.1844  -27344603.01048 -21302593.07947                  20059911.4234
      -307.2224
  21828106.7094  -19632407.06248 -15293437.56146                  21828103.7554
     -2029.8194
  24409279.2224   -3556892.43647  -2769125.50544                  24409277.1094
     -2441.1724
  21087260.1164  -16178046.99047 -12585314.21746                  21087257.7844
       250.9774
  21383689.6124  -15353325.76047 -12295617.64646                  21383687.6814
      1282.6954
  24045456.6994   -5299767.17346  -5352946.44344                  24045457.1354
     -2747.9834
  21994599.2954  -14166464.95447 -12223051.17146                  21994597.4214
      1046.8364
  21988928.6514  -18702041.33948 -14565687.41746                  21988925.8174
      -885.6494
 06  6 27  0 30  0.0000000  0  8G 2G 4G27G29G26G24G10G 8
  20061726.7604  -27335089.69748 -21295180.12247                  20061721.9094
      -326.6894
  21839730.9214  -19571319.41148 -15245836.83546                  21839728.2314
     -2042.4414
  24423240.0444   -3483527.73447  -2711958.27444                  24423237.9134
     -2449.4094
  21085862.3924  -16185392.69747 -12591038.13246                  21085860.1314
       239.0144
  21376409.0894  -15391585.18548 -12325430.19246                  21376407.3794
      1268.1934
  24061167.3824   -5217207.13046  -5288614.11743                  24061167.8344
     -2755.7764
  21988622.9274  -14197874.28147 -12247525.96446                  21988620.5404
      1047.3974
  21994035.3314  -18675206.45947 -14544777.12546                  21994032.5664
      -903.0374
 06  6 27  0 30 30.0000000  0  8G 2G 4G27G29G26G24G10G 8
  20063646.5274  -27324999.51048 -21287317.64847                  20063641.8224
      -345.9914
  21851426.2424  -19509860.49548 -15197946.80446                  21851424.5114
     -2054.9564
  24437245.6754   -3409923.33446  -2654604.26843                  24437245.0114
     -2457.6224
  21084530.8834  -16192388.75847 -12596489.59746                  21084528.4874
       227.2614
  21369209.7414  -15429418.41148 -12354910.61146                  21369207.6704
      1253.9704
  24076922.6314   -5134418.58746  -5224103.71644                  24076922.2174
     -2763.4234
  21982641.6724  -14229308.46947 -12272020.13346                  21982638.2064
      1048.1844
  21999239.8544  -18647857.11347 -14523465.95246                  21999237.4734
      -920.3524
 06  6 27  0 31  0.0000000  0  8G 2G 4G27G29G26G24G10G 8
  20065675.6104  -27314338.09048 -21279010.06747                  20065670.5884
      -364.9764
  21863191.2174  -19448037.15448 -15149772.82546                  21863188.7394
     -2066.8514
  24451296.6914   -3336086.79147  -2597069.33143                  24451295.3884
     -2465.1714
  21083264.2734  -16199042.24147 -12601674.12446                  21083262.1524
       216.0554
  21362089.9004  -15466831.82247 -12384063.92946                  21362087.7624
      1240.0004
  24092718.4004   -5051408.79146  -5159420.89444                  24092718.9984
     -2770.8064
  21976654.2924  -14260772.08948 -12296537.21146                  21976650.8664
      1049.1464
  22004541.0634  -18619999.30348 -14501758.57546                  22004538.6524
      -937.1244
 06  6 27  0 31 30.0000000  0  8G 2G 4G27G29G26G24G10G 8
  20067811.4194  -27303113.40248 -21270263.56547                  20067806.3594
      -383.4864
  21875022.8744  -19385858.86248 -15101322.24546                  21875020.9274
     -2078.4334
  24465389.8814   -3262028.20347  -2539361.33843                  24465388.1504
     -2472.2904
  21082062.1134  -16205362.91148 -12606599.31946                  21082059.5394
       205.2544
  21355048.7764  -15503833.96148 -12412896.75546                  21355047.3314
      1226.6414
  24108555.3104   -4968187.32146  -5094573.19344                  24108555.9024
     -2777.3494
  21970659.7604  -14292272.00748 -12321082.57046                  21970656.9304
      1050.6014
  22009937.2004  -18591642.02948 -14479662.01646                  22009934.2284
      -953.4084
 06  6 27  0 32  0.0000000  0  8G 2G 4G27G29G26G24G10G 8
  20070056.7174  -27291315.09948 -21261070.10647                  20070051.4764
      -402.8764
  21886924.7834  -19323316.65948 -15052588.11946                  21886922.6084
     -2090.8694
  24479526.4294   -3187739.09746  -2481473.74443                  24479525.3714
     -2480.1374
  21080924.1924  -16211342.13348 -12611258.45646                  21080922.0424
       193.6184
  21348087.6084  -15540415.27548 -12441401.67246                  21348085.2524
      1212.3294
  24124433.2844   -4884745.99546  -5029554.04044                  24124434.2764
     -2785.1024
  21964660.4944  -14323797.29348 -12345647.72346                  21964657.4984
      1051.1574
  22015430.0884  -18562775.80348 -14457168.86146                  22015427.5024
      -970.7474
 06  6 27  0 32 30.0000000  0  8G 2G 4G27G29G26G24G10G 8
  20072410.1504  -27278946.97848 -21251432.60847                  20072404.9014
      -421.7044
  21898894.0334  -19260415.84048 -15003574.52346                  21898892.2464
     -2102.6074
  24493705.8994   -3113225.40846  -2423411.16643                  24493704.7594
     -2487.4904
  21079850.3054  -16216985.34047 -12615655.75446                  21079847.9294
       182.5984
  21341205.7104  -15576580.15447 -12469582.08746                  21341203.7494
      1198.5744
  24140353.2574   -4801090.10646  -4964367.83644                  24140354.0464
     -2792.0074
  21958655.9564  -14355350.77347 -12370234.82746                  21958652.9874
      1052.3144
  22021018.9974  -18533404.84947 -14434282.42146                  22021016.8704
      -987.4224
 06  6 27  0 33  0.0000000  0  8G 2G 4G27G29G26G24G10G 8
  20074872.6634  -27266007.79348 -21241350.13347                  20074867.1464
      -440.8554
  21910932.0114  -19197156.40648 -14954281.50446                  21910930.5744
     -2114.6884
  24507928.0464   -3038487.48946  -2365173.87344                  24507926.9614
     -2495.1124
  21078840.4674  -16222293.15948 -12619791.69646                  21078837.3744
       171.3724
  21334403.0484  -15612328.09148 -12497437.61646                  21334400.8064
      1184.6584
  24156312.3214   -4717220.23846  -4899014.84944                  24156313.4454
     -2799.2144
  21952647.0894  -14386930.44148 -12394842.31946                  21952643.9824
      1053.0134
  22026704.4024  -18503528.80548 -14411002.39046                  22026701.9354
     -1004.3414
 06  6 27  0 33 30.0000000  0  8G 2G 4G27G29G26G24G10G 8
  20077442.9264  -27252501.74448 -21230825.95347                  20077436.9364
      -459.6734
  21923037.1334  -19133543.89948 -14904713.35946                  21923035.3794
     -2126.3134
  24522192.7884   -2963531.45646  -2306766.68744                  24522190.7984
     -2502.1004
  21077892.9364  -16227271.21147 -12623670.70546                  21077889.9304
       160.4354
  21327679.0744  -15647663.86648 -12524971.97546                  21327676.2804
      1170.9424
  24172312.3474   -4633142.46346  -4833499.84843                  24172312.8964
     -2806.0744
  21946631.9704  -14418539.39948 -12419472.65746                  21946628.6554
      1054.0874
  22032484.9724  -18473152.37048 -14387332.45546                  22032482.4844
     -1020.8454
 06  6 27  0 34  0.0000000  0  8G 2G 4G27G29G26G24G10G 8
  20080120.8344  -27238427.11648 -21219858.70547                  20080115.5774
      -479.0044
  21935209.4484  -19069577.95248 -14854869.79946                  21935207.5464
     -2138.5454
  24536496.9834   -2888357.50846  -2248189.55444                  24536496.0554
     -2509.8194
  21077008.0604  -16231919.59748 -12627292.80746                  21077005.3074
       149.0534
  21321033.6054  -15682586.45648 -12552184.36546                  21321031.4324
      1156.8364
  24188351.8034   -4548857.01746  -4767823.00344                  24188352.4564
     -2813.3934
  21940611.9744  -14450174.91748 -12444123.67546                  21940608.9254
      1054.5804
  22038360.7834  -18442274.79648 -14363272.02846                  22038358.5234
     -1037.9254
 06  6 27  0 34 30.0000000  0  8G 2G 4G27G29G26G24G10G 8
  20082907.9914  -27223781.77648 -21208446.75847                  20082902.6754
      -497.8034
  21947449.2824  -19005258.06748 -14804750.45546                  21947446.6084
     -2150.0594
  24550843.3114   -2812965.92746  -2189442.95844                  24550842.3114
     -2516.9344
  21076186.8184  -16236238.08648 -12630657.87646                  21076183.8694
       138.2964
  21314466.8234  -15717094.68548 -12579073.88446                  21314464.4234
      1143.2084
  24204430.0264   -4464363.62446  -4701984.11243                  24204430.3924
     -2820.1174
  21934587.5994  -14481834.05248 -12468793.12846                  21934584.2424
      1055.5474
  22044332.0434  -18410895.03748 -14338820.28146                  22044329.9334
     -1054.5364
 06  6 27  0 35  0.0000000  0  8G 2G 4G27G29G26G24G10G 8
  20085803.7164  -27208563.44848 -21196588.32447                  20085799.2454
      -516.5284
  21959756.0304  -18940583.00548 -14754354.35446                  21959754.3314
     -2161.4794
  24565231.9894   -2737355.43646  -2130525.72844                  24565230.3594
     -2523.9114
  21075428.0974  -16240225.44448 -12633764.91146                  21075425.1834
       127.5984
  21307979.2014  -15751186.52348 -12605638.93446                  21307977.3284
      1129.6684
  24220548.1614   -4379660.96246  -4635982.22843                  24220549.7414
     -2826.4504
  21928558.8384  -14513513.02947 -12493478.02046                  21928555.6874
      1056.5724
  22050399.8284  -18379010.29848 -14313975.03546                  22050396.9504
     -1071.0014
 06  6 27  0 35 30.0000000  0  8G 2G 4G27G29G26G24G10G 8
  20088806.2054  -27192786.20148 -21184294.39247                  20088801.9474
      -535.1764
  21972128.1044  -18875568.16348 -14703693.48646                  21972125.9454
     -2172.7104
  24579658.5844   -2661542.19146  -2071450.52544                  24579657.3874
     -2530.3914
  21074729.1274  -16243897.58448 -12636626.31346                  21074725.4444
       117.3144
  21301567.6284  -15784876.68548 -12631891.00246                  21301566.1004
      1116.3974
  24236703.5564   -4294764.82946  -4569829.49843                  24236704.3944
     -2833.1004
  21922524.2094  -14545224.84248 -12518188.49746                  21922520.8744
      1057.7344
  22056560.0074  -18346636.21648 -14288748.49746                  22056557.4834
     -1087.1924
 06  6 27  0 36  0.0000000  0  8G 2G 4G27G29G26G24G10G 8
  20091916.4924  -27176442.59448 -21171559.13447                  20091911.7974
      -554.3364
  21984566.1524  -18810207.64948 -14652763.25646                  21984563.9324
     -2184.5564
  24594125.1574   -2585520.78546  -2012213.13244                  24594124.2664
     -2537.6764
  21074091.7524  -16247248.70548 -12639237.56946                  21074088.3874
       106.2304
  21295234.9044  -15818158.55348 -12657824.91446                  21295233.2374
      1102.4854
  24252896.8744   -4209669.89846  -4503521.87044                  24252897.4954
     -2839.9224
  21916484.8404  -14576961.11548 -12542918.06546                  21916482.1784
      1058.1844
  22062815.4874  -18313765.74048 -14263135.15846                  22062812.4734
     -1104.0824
 06  6 27  0 36 30.0000000  0  8G 2G 4G27G29G26G24G10G 8
  20095136.4754  -27159522.01648 -21158374.27247                  20095130.5344
      -573.4724
  21997071.8204  -18744492.09148 -14601556.37146                  21997069.2334
     -2196.2744
  24608633.1964   -2509282.54846  -1952806.80844                  24608631.8734
     -2544.7804
  21073516.9044  -16250269.88747 -12641591.74046                  21073513.4214
        95.4054
  21288981.3204  -15851022.20747 -12683432.94546                  21288979.2044
      1088.6384
  24269130.1034   -4124367.51746  -4437052.63943                  24269130.5574
     -2846.8854
  21910443.6004  -14608710.29047 -12567657.66346                  21910440.5654
      1058.6574
  22069166.5684  -18280389.19448 -14237127.46646                  22069163.8124
     -1120.8644
 06  6 27  0 37  0.0000000  0  8G 2G 4G27G29G26G24G10G 8
  20098467.2824  -27142018.73948 -21144735.35447                  20098461.3294
      -593.1544
  22009644.6784  -18678416.91148 -14550069.25446                  22009643.1334
     -2208.4574
  24623183.4694   -2432822.87046  -1893227.90743                  24623181.8104
     -2552.1734
  21073005.3214  -16252956.69747 -12643685.34946                  21073002.4334
        84.0234
  21282807.7354  -15883462.28947 -12708710.90946                  21282805.8884
      1074.2874
  24285402.5964   -4038852.81546  -4370417.96744                  24285404.2444
     -2854.0634
  21904400.3074  -14640464.80847 -12592401.44246                  21904397.8074
      1058.4864
  22075615.3144  -18246501.36548 -14210721.37046                  22075612.5554
     -1138.1104
 06  6 27  0 37 30.0000000  0  8G 2G 4G27G29G26G24G10G 8
  20101905.8614  -27123948.54048 -21130654.68647                  20101900.3594
      -611.6264
  22022284.5854  -18611999.12548 -14498315.17146                  22022282.1364
     -2219.4784
  24637771.9934   -2356159.29746  -1833490.15644                  24637770.4074
     -2558.6284
  21072554.1644  -16255326.64748 -12645532.06246                  21072551.4434
        73.9314
  21276712.6364  -15915495.08048 -12733671.52246                  21276709.8114
      1061.1234
  24301713.8694   -3953143.47747  -4303631.60844                  24301714.0864
     -2860.1224
  21898354.1344  -14672239.40847 -12617160.87346                  21898351.4134
      1059.6634
  22082158.1974  -18212118.65148 -14183929.65046                  22082155.3844
     -1154.1854
 06  6 27  0 38  0.0000000  0  8G 2G 4G27G29G26G24G10G 8
  20105451.5474  -27105314.86848 -21116134.95047                  20105446.6514
      -630.5964
  22034987.4004  -18545243.30648 -14446297.70046                  22034985.0604
     -2230.9474
  24652397.5754   -2279297.43246  -1773597.82044                  24652396.4954
     -2565.4204
  21072162.8374  -16257384.34048 -12647135.46646                  21072159.7854
        63.3354
  21270693.5414  -15947124.71147 -12758317.97646                  21270691.4754
      1047.4954
  24318059.2044   -3867244.53446  -4236697.50244                  24318059.3844
     -2866.5924
  21892303.6754  -14704036.11347 -12641937.51146                  21892301.2174
      1060.1124
  22088794.3604  -18177245.22148 -14156755.55846                  22088791.6014
     -1170.7324
 06  6 27  0 38 30.0000000  0  8G 2G 4G27G29G26G24G10G 8
  20109105.7484  -27086113.20348 -21101172.62447                  20109100.5234
      -649.5074
  22047755.4544  -18478146.44848 -14394014.48346                  22047753.5704
     -2242.1194
  24667063.0354   -2202234.15846  -1713548.58744                  24667061.7994
     -2572.0754
  21071831.0414  -16259127.05948 -12648493.43046                  21071828.3564
        52.9104
  21264751.9684  -15978347.40647 -12782647.34146                  21264749.8874
      1034.0094
  24334441.9904   -3781153.02046  -4169613.41043                  24334442.8344
     -2872.8964
  21886249.3554  -14735849.43247 -12666727.10446                  21886246.4104
      1060.7864
  22095524.4004  -18141877.57948 -14129196.36846                  22095522.0894
     -1187.1044
 06  6 27  0 39  0.0000000  0  8G 2G 4G27G29G26G24G10G 8
  20112868.0104  -27066339.89948 -21085764.85047                  20112863.0204
      -668.5844
  22060589.2394  -18410705.90548 -14341463.44446                  22060587.1074
     -2253.6674
  24681765.2174   -2124967.42746  -1653340.83444                  24681765.2224
     -2578.6474
  21071559.6624  -16260552.43547 -12649604.11046                  21071556.9314
        42.2564
  21258888.6234  -16009159.77547 -12806656.96946                  21258886.3014
      1020.3614
  24350861.7274   -3694866.66446  -4102377.44443                  24350862.5544
     -2879.4044
  21880193.7154  -14767673.83547 -12691525.34446                  21880190.9034
      1061.0504
  22102350.0634  -18106012.43048 -14101249.51546                  22102346.7664
     -1203.7354
 06  6 27  0 39 30.0000000  0  8G 2G 4G27G29G26G24G10G 8
  20116739.5024  -27045995.86648 -21069912.36647                  20116734.4304
      -687.3244
  22073487.2934  -18342923.82848 -14288646.28046                  22073485.6184
     -2264.8104
  24696508.8484   -2047499.43146  -1592976.23844                  24696506.7754
     -2585.1814
  21071348.4974  -16261662.62647 -12650469.20046                  21071345.3574
        32.0414
  21253102.5474  -16039563.18948 -12830347.95046                  21253100.9234
      1006.9194
  24367317.9474   -3608387.78846  -4034991.43043                  24367319.5064
     -2885.4444
  21874135.4554  -14799508.87147 -12716331.88346                  21874132.6444
      1061.6414
  22109268.7474  -18069650.98048 -14072915.93046                  22109266.1814
     -1220.0444
 06  6 27  0 40  0.0000000  0  8G 2G 4G27G29G26G24G10G 8
  20120717.8794  -27025090.15248 -21053622.21047                  20120712.7254
      -706.2264
  22086448.9994  -18274810.77147 -14235571.21446                  22086446.8844
     -2275.9964
  24711286.2344   -1969841.39246  -1532463.55244                  24711284.9154
     -2591.7724
  21071195.8294  -16262468.78447 -12651097.37646                  21071191.6874
        21.7724
  21247392.8994  -16069567.91648 -12853728.24546                  21247390.5894
       993.4864
  24383809.0734   -3521727.67346  -3967464.21544                  24383809.9754
     -2891.5824
  21868074.0854  -14831362.51947 -12741152.90146                  21868070.9834
      1062.0364
  22116281.1504  -18032803.40547 -14044203.54146                  22116278.4894
     -1236.3924
 06  6 27  0 40 30.0000000  0  8G 2G 4G27G29G26G24G10G 8
  20124803.4574  -27003620.45948 -21036892.60147                  20124797.9674
      -725.0934
  22099473.3794  -18206365.51448 -14182237.29346                  22099471.7184
     -2287.0954
  24726101.4364   -1891992.37246  -1471802.06844                  24726099.0294
     -2598.2624
  21071099.9524  -16262969.71247 -12651487.71946                  21071096.7794
        11.5144
  21241760.1194  -16099171.64847 -12876796.09346                  21241757.3884
       980.0444
  24400334.9884   -3434885.20346  -3899794.87543                  24400336.5094
     -2897.7644
  21862010.1144  -14863230.64847 -12765985.23046                  21862006.9744
      1062.4764
  22123385.5664  -17995468.29548 -14015111.26546                  22123382.6564
     -1252.6864
 06  6 27  0 41  0.0000000  0  8G 2G 4G27G29G26G24G10G 8
  20128995.7834  -26981589.75248 -21019725.82447                  20128990.3904
      -743.7164
  22112560.6284  -18137591.94948 -14128647.54346                  22112558.4794
     -2297.8914
  24740950.0294   -1813956.58746  -1410995.01544                  24740948.6944
     -2604.4094
  21071061.8614  -16263169.61447 -12651643.49346                  21071058.3464
         1.6944
  21236202.1244  -16128377.82747 -12899554.15446                  21236199.2154
       966.9094
  24416893.6844   -3347864.55346  -3831986.77344                  24416895.9174
     -2903.5064
  21855942.5564  -14895114.76548 -12790829.99346                  21855938.9864
      1063.0864
  22130582.3914  -17957648.60748 -13985641.37946                  22130579.5424
     -1268.6574
 06  6 27  0 41 30.0000000  0  8G 2G 4G27G29G26G24G10G 8
  20133295.4014  -26958995.04648 -21002119.57047                  20133290.0714
      -762.6224
  22125710.5614  -18068488.41647 -14074800.67446                  22125709.1454
     -2309.0724
  24755834.8804   -1735733.17047  -1350041.71844                  24755834.1854
     -2610.6844
  21071081.2504  -16263067.17447 -12651563.67346                  21071078.7194
        -8.4574
  21230720.6324  -16157184.33048 -12922000.77446                  21230718.3504
       953.4574
  24433489.1514   -3260664.30046  -3764038.65244                  24433489.9484
     -2909.7804
  21849872.8584  -14927010.54848 -12815683.84446                  21849869.6344
      1063.3254
  22137871.9924  -17919342.00648 -13955792.10846                  22137869.3384
     -1285.1474
 06  6 27  0 42  0.0000000  0  8G 2G 4G27G29G26G24G10G 8
  20137701.9964  -26935838.91448 -20984075.84847                  20137696.8764
      -781.1334
  22138922.7494  -17999058.47748 -14020699.47546                  22138921.3974
     -2319.6734
  24770755.7624   -1657325.48346  -1288944.89843                  24770754.5354
     -2616.5774
  21071157.7164  -16262665.68547 -12651250.82746                  21071154.6714
       -18.2324
  21225314.3084  -16185593.82748 -12944138.04646                  21225312.0224
       940.5474
  24450115.5734   -3173287.84846  -3695953.25844                  24450116.8624
     -2915.4254
  21843801.0244  -14958918.42148 -12840547.12346                  21843798.3274
      1063.9264
  22145253.6294  -17880551.91348 -13925566.08546                  22145251.4004
     -1300.9184
 06  6 27  0 42 30.0000000  0  8G 2G 4G27G29G26G24G10G 8
  20142214.5544  -26912124.38248 -20965597.00547                  20142209.0594
      -799.7714
  22152196.4294  -17929306.11648 -13966347.02746                  22152195.0994
     -2330.2834
  24785709.9844   -1578738.38147  -1227708.23643                  24785708.8804
     -2622.5644
  21071290.2344  -16261969.69648 -12650708.51246                  21071287.1834
       -27.9934
  21219982.4854  -16213609.55448 -12965968.48246                  21219980.4404
       927.3584
  24466776.0464   -3085740.01946  -3627734.34944                  24466777.1814
     -2921.1034
  21837726.5834  -14990839.84248 -12865420.96546                  21837723.7424
      1064.3364
  22152725.6644  -17841281.64748 -13894965.90346                  22152723.6994
     -1316.9294
 06  6 27  0 43  0.0000000  0  8G 2G 4G27G29G26G24G10G 8
  20146834.6084  -26887846.64848 -20946679.31247                  20146829.4594
      -818.6524
  22165531.9554  -17859228.19948 -13911740.91246                  22165529.9804
     -2341.3434
  24800700.2344   -1499968.74447  -1166329.35944                  24800698.5034
     -2628.7844
  21071479.1304  -16260976.34047 -12649934.47346                  21071476.2144
       -38.1254
  21214726.9534  -16241228.12148 -12987489.44546                  21214724.8174
       913.9314
  24483468.2134   -2998017.73346  -3559379.45344                  24483469.6674
     -2926.9874
  21831650.7504  -15022768.82647 -12890300.68546                  21831647.3854
      1064.3164
  22160291.1594  -17801527.86148 -13863988.93546                  22160288.9194
     -1333.2724
 06  6 27  0 43 30.0000000  0  8G 2G 4G27G29G26G24G10G 8
  20151561.0744  -26863007.73548 -20927324.31847                  20151556.1454
      -837.4024
  22178929.0944  -17788827.55948 -13856883.31546                  22178926.8634
     -2352.1534
  24815723.6174   -1421019.58746  -1104810.61943                  24815722.7514
     -2634.7414
  21071724.6034  -16259688.51047 -12648930.96446                  21071721.3694
       -47.9204
  21209547.0924  -16268451.29447 -13008702.31146                  21209544.5944
       900.7134
  24500194.0764   -2910124.02346  -3490891.02744                  24500196.3154
     -2932.7394
  21825573.0244  -15054705.35647 -12915186.28546                  21825570.2324
      1064.5904
  22167947.9314  -17761292.43348 -13832636.68046                  22167945.2394
     -1349.3464
 06  6 27  0 44  0.0000000  0  9G 2G 4G27G29G26G24G10G 9G 8
  20156394.8254  -26837607.49848 -20907531.94447                  20156389.4284
      -856.0994
  22192387.5284  -17718104.88848 -13801774.80846                  22192385.6564
     -2362.8174
  24830780.8754   -1341892.32747  -1043153.08043                  24830779.3374
     -2640.4304
  21072024.8894  -16258107.44148 -12647698.97746                  21072021.9774
       -57.6074
  21204441.4174  -16295279.65748 -13029607.51946                  21204439.5844
       887.6474
  24516952.0064   -2822060.21646  -3422270.11243                  24516954.2224
     -2938.2084
  21819494.4764  -15086647.68647 -12940076.41146                  21819491.8794
      1064.8244
  24887778.9914     -98250.51045
      4050.5674
  22175695.5734  -17720575.85048 -13800909.48746                  22175693.1784
     -1365.2444
 06  6 27  0 44 30.0000000  0  9G 2G 4G27G29G26G24G10G 9G 8
  20161334.7274  -26811647.31548 -20887303.24147                  20161329.8954
      -874.5754
  22205905.7354  -17647062.91748 -13746417.47746                  22205903.9834
     -2373.3204
  24845871.9494   -1262589.69246   -981358.86043                  24845871.1164
     -2646.2454
  21072381.5994  -16256235.60048 -12646240.39946                  21072378.2514
       -67.1484
  21199411.1304  -16321715.04048 -13050206.53646                  21199408.7564
       874.6534
  24533742.4564   -2733828.85846  -3353518.54743                  24533744.2164
     -2943.8144
  21813415.5874  -15118595.36448 -12964970.69946                  21813412.4714
      1065.0734
  24864648.2884    -219798.34945
      4052.2654
  22183534.7634  -17679380.35848 -13768809.12846                  22183533.0814
     -1381.0554
 06  6 27  0 45  0.0000000  0  8G 2G 4G27G29G26G24G10G 8
  20166381.6254  -26785126.20548 -20866637.46047                  20166376.7704
      -893.3304
  22219485.2154  -17575701.85948 -13690811.51746                  22219483.2224
     -2383.9454
  24860995.8734   -1183112.31746   -919428.46443                  24860994.4444
     -2652.1344
  21072793.0364  -16254073.73148 -12644555.82646                  21072789.7884
       -76.8264
  21194455.6554  -16347757.11748 -13070499.06446                  21194453.0134
       861.5484
  24550564.4754   -2645430.64646  -3284636.93443                  24550566.2314
     -2949.4344
  21807335.5414  -15150545.70447 -12989867.06346                  21807332.4744
      1065.1074
  22191465.4504  -17637705.54448 -13736335.26846                  22191462.9094
     -1397.1044
 06  6 27  0 45 30.0000000  0  9G 2G 4G27G29G26G24G10G 9G 8
  20171534.8604  -26758047.63048 -20845537.28647                  20171529.5004
      -911.9094
  22233125.4844  -17504025.73048 -13634960.03546                  22233122.9104
     -2394.4784
  24876152.4144   -1103464.45846   -857365.18343                  24876150.0144
     -2657.8424
  21073258.5744  -16251625.88348 -12642648.41546                  21073255.6314
       -86.3484
  21189574.2564  -16373409.12848 -13090487.64446                  21189571.8594
       848.5454
  24567417.5264   -2556869.86846  -3215628.68644                  24567418.4064
     -2954.6534
  21801254.5984  -15182499.89847 -13014766.40846                  21801251.9374
      1065.1664
  24818368.5084    -462989.32345
      4054.5604
  22199486.4084  -17595555.23748 -13703490.89146                  22199484.0934
     -1412.9984
 06  6 27  0 46  0.0000000  0  9G 2G 4G27G29G26G24G10G 9G 8
  20176792.0484  -26730420.45948 -20824009.63247                  20176786.5834
      -929.9514
  22246822.5234  -17432044.29448 -13578870.64046                  22246820.7434
     -2404.3754
  24891338.8584   -1023656.52846   -795177.24243                  24891337.8254
     -2662.7884
  21073777.0314  -16248902.35548 -12640526.17746                  21073773.8534
       -95.3224
  21184765.0504  -16398680.55248 -13110179.66846                  21184762.8974
       836.1624
  24584298.9374   -2468156.73246  -3146501.74243                  24584299.9564
     -2959.5654
  21795172.2144  -15214465.14347 -13039674.38646                  21795168.7304
      1065.7284
  24795219.3144                                                   24795220.0314
      4055.8644
  22207596.1824  -17552938.57547 -13670283.12246                  22207593.8524
     -1428.2714
 06  6 27  0 46 30.0000000  0  8G 2G 4G27G29G26G10G 9G 8
  20182154.4404  -26702237.73148 -20802049.08947                  20182149.8354
      -948.7264
  22260579.0714  -17359751.97348 -13522539.01346                  22260577.3504
     -2414.9224
  24906557.6834    -943682.48546   -732859.86743                  24906556.6404
     -2668.5794
  21074349.1514  -16245897.11048 -12638184.43546                  21074346.3714
      -104.8734
  21180030.0554  -16423564.87348 -13129570.06046                  21180027.2024
       822.9984
  21789088.5664  -15246432.33247 -13064583.87646                  21789085.5614
      1065.4984
  24772066.1024    -706326.80045   -536054.16042                  24772064.5524
      4056.7674
  22215795.7294  -17509849.48348 -13636707.22446                  22215792.5284
     -1444.1704
 06  6 27  0 47  0.0000000  0  8G 2G 4G27G29G26G10G 9G 8
  20187624.3964  -26673495.22348 -20779652.34047                  20187619.5214
      -967.1144
  22274396.2184  -17287145.74148 -13465962.79946                  22274394.1544
     -2425.2004
  24921807.0914    -863540.13646   -670411.33943                  24921807.4984
     -2673.8134
  21074974.8404  -16242607.63848 -12635621.21846                  21074971.3844
      -114.1114
  21175368.7444  -16448058.42448 -13148655.95146                  21175366.3374
       810.1864
  21783006.4374  -15278395.71447 -13089490.39646                  21783003.2304
      1065.6104
  24748904.8094    -828031.59245   -630889.00842                  24748904.2624
      4057.4274
  22224085.7244  -17466284.93247 -13602760.82646                  22224083.0754
     -1459.8144
 06  6 27  0 47 30.0000000  0  8G 2G 4G27G29G26G10G 9G 8
  20193198.5034  -26644203.86848 -20756827.92647                  20193193.1164
      -985.5764
  22288270.2444  -17214237.28048 -13409151.06646                  22288267.9654
     -2435.3664
  24937089.0724    -783241.51946   -607841.05343                  24937088.2514
     -2679.1414
  21075652.6634  -16239045.75048 -12632845.70946                  21075649.9514
      -123.3204
  21170780.4044  -16472172.54848 -13167446.19046                  21170777.8294
       797.4274
  21776923.2234  -15310363.94447 -13114400.68646                  21776920.4824
      1065.6694
  24725739.6664    -949765.39145   -725746.44942                  24725738.9194
      4057.8474
  22232464.0264  -17422256.18548 -13568452.72946                  22232461.5794
     -1475.4204
 06  6 27  0 48  0.0000000  0  8G 2G 4G27G29G26G10G 9G 8
  20198878.1924  -26614356.71248 -20733570.41547                  20198873.0904
     -1004.3314
  22302202.5924  -17141020.44147 -13352099.02146                  22302200.8674
     -2445.8544
  24952400.5644    -702780.49646   -545144.19443                  24952399.4124
     -2684.8104
  21076383.4604  -16235205.51548 -12629853.31446                  21076380.1954
      -132.7644
  21166264.8404  -16495900.33448 -13185935.36646                  21166262.8234
       784.3214
  21770840.4494  -15342327.94547 -13139307.69946                  21770837.6204
      1065.2494
  24702570.6634   -1071516.99245   -820617.72742                  24702570.6764
      4058.5844
  22240932.2654  -17377756.21447 -13533777.43846                  22240930.2664
     -1491.4114
 06  6 27  0 48 30.0000000  0  8G 2G 4G27G29G26G10G 9G 8
  20204662.7924  -26583956.79948 -20709882.18447                  20204657.8334
     -1022.3934
  22316193.4824  -17067499.46247 -13294809.99746                  22316191.6934
     -2455.6304
  24967741.1884    -622161.63246   -482324.43543                  24967741.1144
     -2689.7074
  21077166.4284  -16231091.42148 -12626647.52946                  21077162.9744
      -141.5724
  21161822.3854  -16519245.64148 -13204126.50846                  21161819.4204
       771.9144
  21764758.1774  -15374288.98748 -13164212.40746                  21764755.4194
      1065.4694
  24679398.8484   -1193286.93045   -915503.28942                  24679398.0434
      4059.4634
  22249489.3694  -17332789.03047 -13498738.10946                  22249486.3834
     -1506.5974
 06  6 27  0 49  0.0000000  0  8G 2G 4G27G29G26G10G 9G 8
  20210553.2964  -26553003.83048 -20685763.00047                  20210548.2404
     -1040.9234
  22330241.8714  -16993674.83248 -13237284.38246                  22330240.6884
     -2465.8354
  24983112.4314    -541385.41046   -419382.00443                  24983112.1034
     -2695.2344
  21078001.1764  -16226703.89448 -12623228.68946                  21077998.2134
      -150.6844
  21157453.0604  -16542208.11648 -13222019.34046                  21157450.1414
       759.0924
  21758677.0104  -15406244.30348 -13189112.64046                  21758674.7524
      1065.0634
  24656223.0974   -1315071.14945  -1010400.05542                  24656223.4204
      4059.7024
  22258135.6154  -17287354.18647 -13463334.35546                  22258133.0834
     -1522.3104
 06  6 27  0 49 30.0000000  0  8G 2G 4G27G29G26G10G 9G 8
  20216548.8794  -26521497.82348 -20661212.87747                  20216543.9914
     -1059.4094
  22344348.0234  -16919547.57648 -13179522.94346                  22344346.0034
     -2475.8944
  24998514.1544    -460453.43946   -356318.18543                  24998512.8134
     -2700.1274
  21078887.7544  -16222044.17948 -12619597.74746                  21078884.5384
      -159.8684
  21153156.3304  -16564788.30748 -13239614.28146                  21153154.0864
       746.2704
  21752597.7664  -15438191.90748 -13214006.86846                  21752595.0824
      1064.7564
  24633047.3274   -1436866.48845  -1105305.49242                  24633046.7824
      4060.3224
  22266870.3184  -17241452.97947 -13427567.20046                  22266867.9554
     -1537.7644
 06  6 27  0 50  0.0000000  0  8G 2G 4G27G29G26G10G 9G 8
  20222649.4164  -26489438.80448 -20636231.84247                  20222643.9104
     -1077.8914
  22358511.1734  -16845118.49148 -13121526.32046                  22358509.3494
     -2486.0894
  25013944.7724    -379366.67946   -293133.71343                  25013943.4444
     -2705.6354
  21079825.9544  -16217113.42448 -12615755.59346                  21079823.5994
      -168.9654
  21148931.5994  -16586986.60648 -13256911.66046                  21148929.2784
       733.5164
  21746520.2384  -15470129.69448 -13238893.44146                  21746517.2474
      1064.4534
  24609869.2214   -1558668.82545  -1200216.32842                  24609868.6254
      4060.0734
  22275693.4024  -17195085.88648 -13391437.04546                  22275692.0244
     -1553.3204
 06  6 27  0 50 30.0000000  0  8G 2G 4G27G29G26G10G 9G 8
  20228853.5274  -26456834.28648 -20610825.74147                  20228848.3234
     -1095.8794
  22372730.3774  -16770396.04648 -13063301.07946                  22372728.8094
     -2495.6154
  25029402.2554    -298133.46646   -229835.23243                  25029401.3804
     -2710.1764
  21080814.3214  -16211919.87148 -12611708.65446                  21080810.8784
      -177.5544
  21144778.9164  -16608810.45248 -13273917.24146                  21144776.4694
       721.2404
  21740443.8534  -15502063.06548 -13263776.57946                  21740441.1904
      1064.3554
  24586688.7704   -1680482.06246  -1295135.72543                  24586687.6044
      4060.4344
  22284603.7894  -17148260.62648 -13354949.85046                  22284601.5134
     -1568.4864
 06  6 27  0 51  0.0000000  0  8G 2G 4G27G29G26G10G 9G 8
  20235160.9854  -26423689.72548 -20584998.83347                  20235155.6164
     -1113.5554
  22387004.2844  -16695386.47248 -13004852.11446                  22387002.5264
     -2504.8444
  25044886.7994    -216760.30846   -166427.64443                  25044886.2814
     -2714.5224
  21081851.5034  -16206470.15848 -12607462.13546                  21081848.2954
      -185.6154
  21140695.8514  -16630265.82848 -13290635.71646                  21140693.3454
       709.2774
  21734367.3454  -15533995.04948 -13288658.63746                  21734365.0564
      1064.6094
  24563505.8094   -1802308.40246  -1390065.25743                  24563504.5554
      4061.4064
  22293600.5134  -17100983.29848 -13318110.37545                  22293596.4334
     -1583.1934
 06  6 27  0 51 30.0000000  0  8G 2G 4G27G29G26G10G 9G 8
  20241570.5474  -26390007.49448 -20558752.94847                  20241565.0454
     -1132.1634
  22401332.0754  -16620093.00348 -12946181.93446                  22401329.9764
     -2515.0054
  25060397.1234    -135250.86645   -102913.90443                  25060397.0814
     -2719.5224
  21082936.9044  -16200767.53948 -12603018.53146                  21082933.7654
      -194.7224
  21136682.7144  -16651355.51048 -13307069.21746                  21136680.4454
       696.4114
  21728290.8624  -15565925.51348 -13313539.50546                  21728288.1994
      1063.8334
  24540320.0634   -1924146.69846  -1485004.10343                  24540320.4794
      4061.0644
  22302682.8044  -17053256.83048 -13280920.90646                  22302680.4994
     -1598.8384
 06  6 27  0 52  0.0000000  0  8G 2G 4G27G29G26G10G 9G 8
  20248084.3284  -26355775.11248 -20532078.38547                  20248079.4484
     -1149.9954
  22415716.2774  -16544503.96648 -12887281.44846                  22415714.4614
     -2524.2534
  25075935.8694     -53593.74646    -39285.02343                  25075936.1514
     -2724.0674
  21084071.9864  -16194800.73847 -12598369.08646                  21084068.8774
      -203.0184
  21132741.4174  -16672067.25548 -13323208.24046                  21132739.2894
       684.3704
  21722218.1004  -15597840.02548 -13338407.96446                  21722214.9714
      1063.7794
  24517136.0484   -2045980.11046  -1579939.26143                  24517136.9494
      4061.4064
  22311852.2614  -17005069.04848 -13243371.99946                  22311850.2124
     -1613.6964
 06  6 27  0 52 30.0000000  0  8G 2G 4G27G29G26G10G 9G 8
  20254702.9884  -26320995.76548 -20504977.61847                  20254697.2314
     -1168.7214
  22430155.6404  -16468623.69748 -12828154.02946                  22430153.7964
     -2534.4534
  25091502.6144      28206.99746     24455.71043                  25091502.2954
     -2729.3414
  21085256.9914  -16188573.65348 -12593516.80846                  21085254.0054
      -212.1584
  21128871.3014  -16692404.38448 -13339055.34546                  21128868.6424
       671.3824
  21716147.5994  -15629739.22348 -13363264.47446                  21716144.9914
      1062.7394
  24493951.9744   -2167808.58446  -1674870.45043                  24493952.6524
      4060.6014
  22321108.9754  -16956423.89348 -13205466.71046                  22321108.1734
     -1629.4534
 06  6 27  0 53  0.0000000  0  8G 2G 4G27G29G26G10G 9G 8
  20261425.7674  -26285666.24948 -20477448.14847                  20261420.3464
     -1186.6554
  22444650.7944  -16392449.45748 -12768797.54446                  22444649.4434
     -2543.8824
  25107096.4744     110153.70346     88310.22543                  25107095.7814
     -2733.9504
  21086492.6654  -16182084.06948 -12588460.00146                  21086489.0254
      -220.5084
  21125073.2224  -16712364.05248 -13354608.33046                  21125070.7404
       659.2194
  21710081.3194  -15661617.84348 -13388104.96546                  21710079.0004
      1062.3834
  24470772.1144   -2289625.02246  -1769792.37943                  24470771.0974
      4060.5764
  22330454.0424  -16907318.37448 -13167202.70646                  22330451.4544
     -1644.3754
 06  6 27  0 53 30.0000000  0  8G 2G 4G27G29G26G10G 9G 8
  20268250.5884  -26249801.73748 -20449501.79547                  20268245.4014
     -1204.6684
  22459199.7994  -16315997.15348 -12709224.38646                  22459198.1544
     -2553.3014
  25122715.6454     192230.68846    152266.21944                  25122715.0524
     -2738.3254
  21087773.8474  -16175347.91148 -12583211.05446                  21087771.0764
      -228.9654
  21121343.8124  -16731961.49948 -13369879.07946                  21121341.4734
       646.9194
  21704016.9344  -15693488.15148 -13412938.96546                  21704013.8694
      1061.8464
  24447590.9684   -2411440.53346  -1864713.46243                  24447590.1874
      4060.0594
  22339882.8494  -16857768.02248 -13128592.05646                  22339880.5254
     -1659.3554
 06  6 27  0 54  0.0000000  0  8G 2G 4G27G29G26G10G 9G 8
  20275178.0734  -26213397.76148 -20421135.07947                  20275172.6944
     -1222.6074
  22473802.1374  -16239263.45348 -12649431.95946                  22473800.6854
     -2562.5594
  25138360.1544     274440.50046    216325.77044                  25138358.9674
     -2742.5834
  21089102.8534  -16168361.98448 -12577767.46946                  21089100.0034
      -237.1484
  21117684.4634  -16751192.89848 -13384864.56746                  21117681.8274
       634.8394
  21697954.7974  -15725343.62548 -13437761.41946                  21697951.9424
      1061.4064
  24424412.4194   -2533248.06446  -1959628.43243                  24424411.0294
      4059.8934
  22349397.2464  -16807769.71248 -13089632.34446                  22349394.5994
     -1674.2434
 06  6 27  0 54 30.0000000  0  7G 2G 4G29G26G10G 9G 8
  20282206.9244  -26176459.84848 -20392352.29847                  20282202.0264
     -1240.3374
  22488456.3224  -16162254.52848 -12589425.05046                  22488454.2974
     -2571.6414
  21090478.9664  -16161132.51048 -12572134.10946                  21090475.8034
      -245.2734
  21114093.2764  -16770063.75548 -13399569.13246                  21114090.9854
       622.8224
  21691895.0704  -15757187.37148 -13462574.73146                  21691892.5364
      1060.9524
  24401234.6214   -2655048.38246  -2054537.67343                  24401233.5974
      4059.7664
  22358995.7214  -16757328.83947 -13050327.78646                  22358993.4514
     -1688.9314
 06  6 27  0 55  0.0000000  0  7G 2G 4G29G26G10G 9G 8
  20289338.9404  -26138981.96248 -20363148.76447                  20289333.8704
     -1258.3644
  22503164.3334  -16084964.81648 -12529199.35946                  22503161.9724
     -2581.1874
  21091902.2164  -16153654.02748 -12566306.73246                  21091899.1814
      -253.6084
  21110571.7884  -16788568.08848 -13413988.08646                  21110569.9024
       610.6454
  21685839.6674  -15789010.37448 -13487371.86946                  21685836.5984
      1060.3034
  24378059.6584   -2776831.44146  -2149433.48743                  24378059.5594
      4058.9994
  22368680.1784  -16706439.57448 -13010673.83446                  22368677.1504
     -1703.9014
 06  6 27  0 55 30.0000000  0  7G 2G 4G29G26G10G 9G 8
  20296573.6794  -26100963.12648 -20333523.71347                  20296568.5454
     -1276.2404
  22517925.3214  -16007394.10448 -12468754.72146                  22517923.4364
     -2590.2054
  21093372.6214  -16145926.53148 -12560285.30346                  21093369.3644
      -261.6024
  21107120.4064  -16806705.13348 -13428120.84246                  21107118.5064
       598.6234
  21679788.2724  -15820809.11248 -13512150.10846                  21679785.4724
      1059.6634
  24354890.0984   -2898592.31246  -2244312.04944                  24354889.1314
      4058.3504
  22378449.3044  -16655101.57348 -12970670.22246                  22378446.4434
     -1718.7014
 06  6 27  0 56  0.0000000  0  7G 2G 4G29G26G10G 9G 8
  20303911.0404  -26062406.12648 -20303479.31747                  20303905.7394
     -1294.1214
  22532739.3834  -15929546.08348 -12408093.98545                  22532737.5854
     -2599.4294
  21094890.0884  -16137953.60348 -12554072.62546                  21094886.9254
      -269.8394
  21103738.9394  -16824477.96548 -13441969.80046                  21103736.4024
       586.4754
  21673741.6894  -15852584.12648 -13536909.85446                  21673738.7974
      1058.8044
  24331724.1734   -3020330.38546  -2339172.84444                  24331723.6634
      4057.6074
  22388303.1664  -16603318.25248 -12930319.58046                  22388300.1124
     -1733.3744
 06  6 27  0 56 30.0000000  0  7G 2G 4G29G26G10G 9G 8
  20311350.3134  -26023313.38748 -20273017.46247                  20311345.0504
     -1311.9684
  22547605.3154  -15851424.08348 -12347219.75846                  22547603.4044
     -2608.5404
  21096453.0534  -16129738.72248 -12547671.41946                  21096450.4264
      -277.7204
  21100425.2424  -16841889.30048 -13455537.07746                  21100423.1984
       574.4194
  21667699.8054  -15884335.16148 -13561650.91946                  21667696.8464
      1058.0474
  24308561.0134   -3142044.31046  -2434014.71943                  24308561.5444
      4056.7294
  22398241.4394  -16551092.20147 -12889623.96146                  22398238.6834
     -1748.1014
 06  6 27  0 57  0.0000000  0  7G 2G 4G29G26G10G 9G 8
  20318890.7504  -25983688.51248 -20242140.95547                  20318885.6174
     -1329.7174
  22562522.6554  -15773032.22448 -12286135.24845                  22562521.5444
     -2617.5004
  21098061.5724  -16121285.85247 -12541084.77146                  21098058.0644
      -285.8404
  21097180.2704  -16858942.81348 -13468825.52546                  21097177.8504
       562.5154
  21661662.2874  -15916063.29448 -13586374.14946                  21661659.1234
      1057.1834
  24285406.4044   -3263733.15046  -2528837.22843                  24285404.5524
      4055.8114
  22408263.4164  -16498427.52147 -12848586.57346                  22408260.6374
     -1762.8084
 06  6 27  0 57 30.0000000  0  7G 2G 4G29G26G10G 9G 8
  20326533.0644  -25943526.69748 -20210846.04247                  20326528.3954
     -1347.3684
  22577492.4904  -15694366.32548 -12224837.21446                  22577490.6704
     -2626.4214
  21099716.1554  -16112591.19548 -12534309.71846                  21099712.8014
      -293.5944
  21094004.0404  -16875633.79048 -13481831.47046                  21094001.9604
       550.6254
  21655630.7624  -15947760.90248 -13611073.57946                  21655627.5864
      1056.3484
  24262254.8264   -3385388.42946  -2623633.44443                  24262253.9364
      4054.7514
  22418368.8134  -16445320.09947 -12807204.16945                  22418366.7874
     -1777.2904
 06  6 27  0 58  0.0000000  0  7G 2G 4G29G26G10G 9G 8
  20334276.6554  -25902835.19248 -20179138.39647                  20334271.3204
     -1365.2984
  22592513.4514  -15615434.27148 -12163331.77946                  22592511.2554
     -2635.4744
  21101415.1514  -16103662.68948 -12527352.44046                  21101411.7394
      -301.5094
  21090895.3124  -16891969.69948 -13494560.74146                  21090893.2204
       538.5944
  21649603.1564  -15979432.50248 -13635752.74146                  21649600.2284
      1055.3274
  24239109.8064   -3507013.20746  -2718405.94744                  24239109.7334
      4053.4234
  22428557.4294  -16391777.41147 -12765482.61145                  22428555.3574
     -1792.0074
 06  6 27  0 58 30.0000000  0  7G 2G 4G29G26G10G 9G 8
  20342119.8544  -25861615.66048 -20147019.29547                  20342115.1024
     -1382.5594
  22607583.8294  -15536238.01148 -12101620.48846                  22607582.4124
     -2644.0234
  21103158.4864  -16094502.25948 -12520214.43246                  21103155.0024
      -308.9554
  21087854.2314  -16907951.90048 -13507014.40146                  21087851.7094
       527.0514
  21643581.3974  -16011076.67348 -13660410.55546                  21643578.6264
      1054.5214
  24215972.1844   -3628604.96046  -2813152.66544                  24215971.8984
      4052.7304
  22438828.8354  -16337801.12347 -12723423.18345                  22438827.1004
     -1806.2454
 06  6 27  0 59  0.0000000  0  7G 2G 4G29G26G10G 9G 8
  20350064.1574  -25819870.79848 -20114490.85347                  20350059.1984
     -1400.2834
  22622703.8884  -15456781.48247 -12039706.37045                  22622702.4914
     -2652.9154
  21104945.0084  -16085113.61748 -12512898.61846                  21104941.4304
      -316.8514
  21084879.4144  -16923583.68348 -13519195.01546                  21084877.4234
       515.1324
  21637565.3744  -16042693.79848 -13685047.28746                  21637562.3144
      1053.3554
  24192840.8924   -3750162.33146  -2907872.63144                  24192839.9824
      4051.2844
  22449182.6984  -16283394.59648 -12681028.51046                  22449180.6654
     -1820.8304
